DL3NDS-WX Weather Reports


time (UTC)temp
C
wind
direction
speed
KPH
gust
KPH
rain 1hr
cm
rain 24hr
cm
rain mn
cm
humidity
%
barometer
mb
20260505174320 13 229 16.1 33.8 0.25 0.25 0.28 81 1008.3
20260505174218 13 273 16.1 33.8 0.20 0.20 0.23 81 1008.2
20260505174113 14 259 12.9 33.8 0.20 0.20 0.20 80 1008.4
20260505174012 14 269 11.3 33.8 0.15 0.15 0.15 79 1008.4
20260505173911 14 256 11.3 33.8 0.08 0.08 0.10 78 1008.5
20260505173809 15 246 14.5 33.8 0.05 0.05 0.05 77 1008.4
20260505173708 15 238 16.1 33.8 0.05 0.05 0.05 77 1008.4
20260505173611 15 250 19.3 33.8 0.00 0.00 0.03 76 1008.4
20260505173509 15 249 14.5 33.8 0.00 0.00 0.00 74 1008.4
20260505173409 16 222 11.3 33.8 0.00 0.00 0.00 72 1008.5
20260505173308 16 178 11.3 32.2 0.00 0.00 0.00 71 1008.3
20260505173227 16 216 11.3 32.2 0.00 0.00 0.00 70 1008.4
20260505173149 16 280 14.5 32.2 0.00 0.00 0.00 68 1008.2
20260505173010 16 223 17.7 32.2 0.00 0.00 0.00 66 1008.2
20260505172935 16 216 22.5 32.2 0.00 0.00 0.00 65 1008.3
20260505172902 16 216 24.1 32.2 0.00 0.00 0.00 65 1008.4
20260505172659 17 250 19.3 32.2 0.00 0.00 0.00 65 1008.3
20260505172558 17 232 12.9 32.2 0.00 0.00 0.00 66 1008.2
20260505172507 17 216 4.8 20.9 0.00 0.00 0.00 68 1008.4
20260505172434 17 233 1.6 8.0 0.00 0.00 0.00 67 1007.9
20260505172359 17 291 0.0 6.4 0.00 0.00 0.00 67 1007.6
20260505172154 17 323 0.0 6.4 0.00 0.00 0.00 67 1007.4
20260505172048 17 322 1.6 9.7 0.00 0.00 0.00 67 1007.2
20260505171947 17 320 1.6 9.7 0.00 0.00 0.00 67 1007.2
20260505171843 17 320 1.6 9.7 0.00 0.00 0.00 67 1007.1
20260505171742 17 324 0.0 9.7 0.00 0.00 0.00 67 1007.2
20260505171643 17 326 1.6 9.7 0.00 0.00 0.00 67 1007.1
20260505171536 17 326 1.6 11.3 0.00 0.00 0.00 67 1007.0
20260505171432 17 324 0.0 11.3 0.00 0.00 0.00 67 1007.0
20260505171333 17 324 0.0 11.3 0.00 0.00 0.00 67 1007.1
20260505171229 17 324 1.6 11.3 0.00 0.00 0.00 67 1007.1
20260505171131 17 324 1.6 11.3 0.00 0.00 0.00 67 1007.0
20260505171024 17 330 1.6 11.3 0.00 0.00 0.00 67 1007.1
20260505170921 17 344 1.6 11.3 0.00 0.00 0.00 67 1007.0
20260505170820 17 1 3.2 11.3 0.00 0.00 0.00 67 1007.0
20260505170719 17 324 6.4 11.3 0.00 0.00 0.00 67 1007.1
20260505170618 17 329 4.8 11.3 0.00 0.00 0.00 67 1007.0
20260505170516 17 322 1.6 11.3 0.00 0.00 0.00 67 1007.0
20260505170417 17 328 1.6 8.0 0.00 0.00 0.00 67 1007.0
20260505170315 17 328 1.6 8.0 0.00 0.00 0.00 67 1007.0
20260505170215 17 12 1.6 9.7 0.00 0.00 0.00 67 1007.0
20260505170114 17 329 0.0 9.7 0.00 0.00 0.00 67 1007.0
20260505170013 17 329 1.6 9.7 0.00 0.00 0.00 66 1006.9
20260505165911 17 329 0.0 9.7 0.00 0.00 0.00 67 1007.0
20260505165811 17 28 0.0 9.7 0.00 0.00 0.00 67 1006.9
20260505165708 17 31 0.0 9.7 0.00 0.00 0.00 67 1006.9
20260505165607 17 31 3.2 9.7 0.00 0.00 0.00 66 1007.0
20260505165505 17 31 3.2 9.7 0.00 0.00 0.00 66 1006.9
20260505165432 17 27 3.2 9.7 0.00 0.00 0.00 66 1007.0
20260505165358 17 31 3.2 9.7 0.00 0.00 0.00 66 1007.0
20260505165201 17 26 3.2 9.7 0.00 0.00 0.00 66 1007.0
20260505165100 17 17 1.6 9.7 0.00 0.00 0.00 66 1007.0
20260505164959 17 0 3.2 9.7 0.00 0.00 0.00 66 1007.0
20260505164857 17 345 4.8 9.7 0.00 0.00 0.00 66 1007.1
20260505164756 17 17 3.2 9.7 0.00 0.00 0.00 66 1007.0
20260505164653 17 27 1.6 9.7 0.00 0.00 0.00 66 1007.0
20260505164552 17 26 3.2 9.7 0.00 0.00 0.00 66 1007.1
20260505164447 17 24 4.8 12.9 0.00 0.00 0.00 66 1007.1
20260505164346 17 24 3.2 12.9 0.00 0.00 0.00 67 1007.0
20260505164251 17 35 3.2 12.9 0.00 0.00 0.00 67 1007.1
20260505164147 17 31 3.2 12.9 0.00 0.00 0.00 67 1007.1
20260505164046 17 53 3.2 12.9 0.00 0.00 0.00 68 1007.1
20260505163946 17 39 4.8 12.9 0.00 0.00 0.00 67 1007.1
20260505163845 17 45 4.8 12.9 0.00 0.00 0.00 67 1007.1
20260505163644 17 16 4.8 12.9 0.00 0.00 0.00 68 1007.2
20260505163540 17 32 4.8 12.9 0.00 0.00 0.00 67 1007.1
20260505163437 17 322 3.2 14.5 0.00 0.00 0.00 68 1007.1
20260505163334 17 34 1.6 14.5 0.00 0.00 0.00 68 1007.1
20260505163238 17 20 0.0 14.5 0.00 0.00 0.00 68 1007.2
20260505163141 17 20 3.2 14.5 0.00 0.00 0.00 68 1007.1
20260505163035 18 18 3.2 14.5 0.00 0.00 0.00 67 1007.1
20260505162933 18 29 1.6 14.5 0.00 0.00 0.00 67 1007.1
20260505162831 18 39 4.8 14.5 0.00 0.00 0.00 67 1007.2
20260505162730 18 40 6.4 14.5 0.00 0.00 0.00 66 1007.2
20260505162630 18 33 8.0 14.5 0.00 0.00 0.00 67 1007.2
20260505162536 18 15 8.0 14.5 0.00 0.00 0.00 67 1007.2
20260505162427 18 5 6.4 14.5 0.00 0.00 0.00 66 1007.3
20260505162326 18 350 6.4 14.5 0.00 0.00 0.00 66 1007.3
20260505162224 18 353 8.0 17.7 0.00 0.00 0.00 66 1007.3
20260505162123 18 25 3.2 17.7 0.00 0.00 0.00 67 1007.3
20260505162022 18 36 3.2 20.9 0.00 0.00 0.00 66 1007.2
20260505161921 18 13 4.8 20.9 0.00 0.00 0.00 67 1007.3
20260505161820 18 40 8.0 20.9 0.00 0.00 0.00 66 1007.3
20260505161714 18 24 8.0 20.9 0.00 0.00 0.00 66 1007.3
20260505161616 18 4 6.4 20.9 0.00 0.00 0.00 66 1007.3
20260505161523 18 43 6.4 20.9 0.00 0.00 0.00 66 1007.3
20260505161414 18 45 8.0 22.5 0.00 0.00 0.00 66 1007.3
20260505161313 18 35 9.7 22.5 0.00 0.00 0.00 66 1007.3
20260505161208 18 22 9.7 22.5 0.00 0.00 0.00 66 1007.4
20260505161110 18 43 9.7 22.5 0.00 0.00 0.00 66 1007.4
20260505161009 18 14 8.0 22.5 0.00 0.00 0.00 66 1007.4
20260505160935 18 46 8.0 22.5 0.00 0.00 0.00 66 1007.4
20260505160854 18 14 9.7 22.5 0.00 0.00 0.00 67 1007.4
20260505160706 18 61 11.3 22.5 0.00 0.00 0.00 66 1007.3
20260505160604 18 28 11.3 22.5 0.00 0.00 0.00 66 1007.3
20260505160505 18 60 8.0 22.5 0.00 0.00 0.00 66 1007.3
20260505160424 18 74 8.0 19.3 0.00 0.00 0.00 66 1007.4
20260505160351 18 52 9.7 19.3 0.00 0.00 0.00 66 1007.4
20260505160159 18 20 9.7 19.3 0.00 0.00 0.00 66 1007.4
20260505160106 18 14 6.4 19.3 0.00 0.00 0.00 66 1007.3
20260505153312 18 46 3.2 12.9 0.00 0.00 0.00 67 1007.6
20260505153211 18 12 4.8 12.9 0.00 0.00 0.00 67 1007.6
20260505153106 18 348 3.2 12.9 0.00 0.00 0.00 67 1007.6
20260505153007 18 359 4.8 11.3 0.00 0.00 0.00 67 1007.6
20260505152906 18 70 3.2 11.3 0.00 0.00 0.00 67 1007.7
20260505152806 18 29 4.8 12.9 0.00 0.00 0.00 67 1007.6
20260505152701 18 10 6.4 12.9 0.00 0.00 0.00 67 1007.7
20260505152559 18 28 6.4 12.9 0.00 0.00 0.00 67 1007.6
20260505152459 18 58 4.8 12.9 0.00 0.00 0.00 67 1007.6
20260505152357 18 37 4.8 12.9 0.00 0.00 0.00 67 1007.7
20260505152256 18 40 4.8 16.1 0.00 0.00 0.00 68 1007.7
20260505152154 18 26 4.8 16.1 0.00 0.00 0.00 68 1007.7
20260505152052 18 32 6.4 16.1 0.00 0.00 0.00 68 1007.7
20260505152000 18 53 4.8 16.1 0.00 0.00 0.00 68 1007.8
20260505151927 18 24 3.2 16.1 0.00 0.00 0.00 68 1007.7
20260505151839 18 42 4.8 16.1 0.00 0.00 0.00 68 1007.8
20260505151655 18 51 6.4 16.1 0.00 0.00 0.00 68 1007.7
20260505151554 18 47 9.7 16.1 0.00 0.00 0.00 68 1007.8
20260505151444 18 29 6.4 16.1 0.00 0.00 0.00 68 1007.8
20260505151340 18 28 1.6 16.1 0.00 0.00 0.00 68 1007.8
20260505151237 18 6 4.8 16.1 0.00 0.00 0.00 68 1007.8
20260505151140 18 326 4.8 16.1 0.00 0.00 0.00 68 1007.8
20260505151038 18 13 1.6 17.7 0.00 0.00 0.00 68 1007.7
20260505150938 18 333 3.2 17.7 0.00 0.00 0.00 67 1007.8
20260505150835 18 335 3.2 22.5 0.00 0.00 0.00 67 1007.8
20260505150734 18 26 4.8 22.5 0.00 0.00 0.00 67 1007.8
20260505150635 18 8 6.4 22.5 0.00 0.00 0.00 67 1007.8
20260505150531 18 29 4.8 22.5 0.00 0.00 0.00 67 1007.8
20260505150441 18 35 6.4 22.5 0.00 0.00 0.00 67 1007.8
20260505150410 18 32 8.0 22.5 0.00 0.00 0.00 66 1007.8
20260505150329 18 18 6.4 22.5 0.00 0.00 0.00 66 1007.8
20260505150128 18 45 9.7 22.5 0.00 0.00 0.00 65 1007.8
20260505140611 19 319 6.4 17.7 0.00 0.00 0.00 61 1008.0
20260505140509 19 330 4.8 17.7 0.00 0.00 0.00 62 1008.0
20260505140408 19 313 4.8 16.1 0.00 0.00 0.00 62 1008.1
20260505140307 19 29 4.8 16.1 0.00 0.00 0.00 62 1008.0
20260505140209 19 336 3.2 19.3 0.00 0.00 0.00 62 1008.0
20260505140106 19 334 3.2 19.3 0.00 0.00 0.00 62 1008.0
20260505130239 20 315 6.4 19.3 0.00 0.00 0.00 58 1008.5
20260505130145 20 14 4.8 19.3 0.00 0.00 0.00 58 1008.4
20260505125022 20 331 6.4 24.1 0.00 0.00 0.00 57 1008.4
20260505124921 20 333 9.7 24.1 0.00 0.00 0.00 57 1008.5
20260505124820 20 328 11.3 24.1 0.00 0.00 0.00 57 1008.5
20260505124718 20 318 6.4 17.7 0.00 0.00 0.00 58 1008.5
20260505124617 20 11 6.4 14.5 0.00 0.00 0.00 58 1008.5
20260505124513 21 43 6.4 17.7 0.00 0.00 0.00 57 1008.5
20260505124412 21 346 4.8 17.7 0.00 0.00 0.00 57 1008.5
20260505124312 21 335 4.8 17.7 0.00 0.00 0.00 58 1008.4
20260505124210 21 6 4.8 17.7 0.00 0.00 0.00 58 1008.4
20260505124108 21 322 3.2 17.7 0.00 0.00 0.00 57 1008.4
20260505124009 21 331 3.2 17.7 0.00 0.00 0.00 59 1008.5
20260505123908 21 327 3.2 17.7 0.00 0.00 0.00 58 1008.5
20260505123806 21 318 6.4 19.3 0.00 0.00 0.00 58 1008.4
20260505123706 21 326 4.8 19.3 0.00 0.00 0.00 58 1008.4
20260505123603 20 356 6.4 19.3 0.00 0.00 0.00 57 1008.5
20260505123503 20 337 6.4 19.3 0.00 0.00 0.00 58 1008.5
20260505123401 20 340 8.0 19.3 0.00 0.00 0.00 58 1008.5
20260505123309 20 334 6.4 19.3 0.00 0.00 0.00 58 1008.5
20260505123158 20 319 6.4 19.3 0.00 0.00 0.00 58 1008.5
20260505123058 20 324 8.0 19.3 0.00 0.00 0.00 57 1008.5
20260505122957 20 315 9.7 19.3 0.00 0.00 0.00 58 1008.5
20260505122852 20 313 8.0 19.3 0.00 0.00 0.00 58 1008.5
20260505122750 20 323 8.0 17.7 0.00 0.00 0.00 58 1008.5
20260505122551 20 339 9.7 17.7 0.00 0.00 0.00 57 1008.5
20260505122447 20 322 8.0 17.7 0.00 0.00 0.00 58 1008.5
20260505122345 20 331 3.2 16.1 0.00 0.00 0.00 58 1008.5
20260505122243 20 330 3.2 19.3 0.00 0.00 0.00 59 1008.5
20260505122142 20 326 3.2 22.5 0.00 0.00 0.00 59 1008.5
20260505122041 20 331 4.8 22.5 0.00 0.00 0.00 59 1008.6
20260505121943 20 325 8.0 22.5 0.00 0.00 0.00 59 1008.5
20260505121838 20 320 9.7 22.5 0.00 0.00 0.00 59 1008.5
20260505121737 20 319 8.0 22.5 0.00 0.00 0.00 59 1008.6
20260505121639 20 329 6.4 22.5 0.00 0.00 0.00 59 1008.5
20260505121601 20 329 4.8 22.5 0.00 0.00 0.00 59 1008.5
20260505121525 20 355 9.7 22.5 0.00 0.00 0.00 58 1008.6
20260505121347 20 329 11.3 22.5 0.00 0.00 0.00 58 1008.6
20260505121308 20 331 8.0 19.3 0.00 0.00 0.00 59 1008.5
20260505121235 20 324 8.0 19.3 0.00 0.00 0.00 58 1008.6
20260505121032 20 321 8.0 17.7 0.00 0.00 0.00 59 1008.6
20260505120930 20 323 3.2 17.7 0.00 0.00 0.00 59 1008.6
20260505120827 20 334 4.8 17.7 0.00 0.00 0.00 59 1008.6
20260505120724 20 320 6.4 17.7 0.00 0.00 0.00 59 1008.6
20260505120528 20 313 8.0 14.5 0.00 0.00 0.00 59 1008.6
20260505120423 20 303 6.4 14.5 0.00 0.00 0.00 59 1008.6
20260505120322 20 298 6.4 20.9 0.00 0.00 0.00 60 1008.7
20260505120218 20 317 4.8 20.9 0.00 0.00 0.00 59 1008.6
20260505120015 20 336 1.6 20.9 0.00 0.00 0.00 59 1008.7
20260505115918 20 351 1.6 20.9 0.00 0.00 0.00 59 1008.6
20260505115812 20 331 3.2 20.9 0.00 0.00 0.00 58 1008.6
20260505115712 21 334 3.2 20.9 0.00 0.00 0.00 58 1008.7
20260505115610 21 308 4.8 20.9 0.00 0.00 0.00 58 1008.7
20260505115509 21 340 8.0 20.9 0.00 0.00 0.00 58 1008.7
20260505115408 21 322 11.3 20.9 0.00 0.00 0.00 58 1008.7
20260505115306 21 324 9.7 22.5 0.00 0.00 0.00 57 1008.6
20260505115205 21 327 9.7 22.5 0.00 0.00 0.00 57 1008.6
20260505115107 21 327 9.7 22.5 0.00 0.00 0.00 57 1008.6
20260505115002 21 319 11.3 22.5 0.00 0.00 0.00 57 1008.6
20260505114905 21 332 11.3 22.5 0.00 0.00 0.00 57 1008.6
20260505114825 21 320 11.3 22.5 0.00 0.00 0.00 57 1008.6
20260505114743 22 320 11.3 22.5 0.00 0.00 0.00 56 1008.7
20260505114558 22 330 14.5 22.5 0.00 0.00 0.00 57 1008.7
20260505114500 22 337 16.1 22.5 0.00 0.00 0.00 56 1008.7
20260505114359 22 325 12.9 22.5 0.00 0.00 0.00 56 1008.8
20260505114253 22 318 12.9 20.9 0.00 0.00 0.00 57 1008.8
20260505114152 22 314 11.3 20.9 0.00 0.00 0.00 56 1008.8
20260505114051 21 316 8.0 20.9 0.00 0.00 0.00 56 1008.8
20260505113951 21 322 3.2 12.9 0.00 0.00 0.00 57 1008.8
20260505113852 21 318 4.8 12.9 0.00 0.00 0.00 57 1008.8
20260505113751 21 14 6.4 12.9 0.00 0.00 0.00 56 1008.8
20260505113650 21 322 4.8 12.9 0.00 0.00 0.00 55 1008.8
20260505113548 21 288 3.2 12.9 0.00 0.00 0.00 55 1008.8
20260505113447 21 328 1.6 11.3 0.00 0.00 0.00 54 1008.8
20260505113346 21 353 3.2 11.3 0.00 0.00 0.00 52 1008.8
20260505113245 21 38 6.4 11.3 0.00 0.00 0.00 51 1008.8
20260505113152 21 32 6.4 11.3 0.00 0.00 0.00 52 1008.9
20260505113042 21 68 3.2 11.3 0.00 0.00 0.00 52 1008.8
20260505112942 21 75 0.0 11.3 0.00 0.00 0.00 50 1008.8
20260505112840 21 37 1.6 12.9 0.00 0.00 0.00 51 1008.8
20260505112739 21 37 1.6 12.9 0.00 0.00 0.00 51 1008.9
20260505112638 21 54 1.6 12.9 0.00 0.00 0.00 52 1008.9
20260505112545 21 41 3.2 12.9 0.00 0.00 0.00 52 1008.8
20260505112436 21 41 3.2 12.9 0.00 0.00 0.00 52 1008.9
20260505112334 21 37 3.2 12.9 0.00 0.00 0.00 54 1008.8
20260505112233 20 50 6.4 12.9 0.00 0.00 0.00 55 1008.9
20260505112134 20 53 8.0 12.9 0.00 0.00 0.00 54 1008.9
20260505112030 20 51 6.4 12.9 0.00 0.00 0.00 54 1008.9
20260505111928 20 69 3.2 8.0 0.00 0.00 0.00 56 1008.9
20260505111827 20 30 1.6 8.0 0.00 0.00 0.00 56 1009.0
20260505111753 20 356 1.6 8.0 0.00 0.00 0.00 56 1008.9
20260505111721 20 1 1.6 8.0 0.00 0.00 0.00 56 1009.0
20260505111525 20 359 1.6 8.0 0.00 0.00 0.00 56 1009.0
20260505111423 20 1 1.6 8.0 0.00 0.00 0.00 57 1008.9
20260505111322 20 8 3.2 11.3 0.00 0.00 0.00 58 1009.0
20260505111220 20 49 3.2 11.3 0.00 0.00 0.00 58 1009.0
20260505111116 20 49 1.6 11.3 0.00 0.00 0.00 58 1008.9
20260505111017 20 14 1.6 16.1 0.00 0.00 0.00 59 1009.0
20260505110916 20 28 0.0 16.1 0.00 0.00 0.00 58 1008.9
20260505110814 20 28 0.0 16.1 0.00 0.00 0.00 59 1008.9
20260505110715 20 28 1.6 16.1 0.00 0.00 0.00 58 1009.0
20260505110613 20 29 3.2 16.1 0.00 0.00 0.00 58 1009.0
20260505110514 20 29 4.8 16.1 0.00 0.00 0.00 58 1009.0
20260505110411 20 28 4.8 16.1 0.00 0.00 0.00 58 1009.0
20260505110309 20 24 3.2 16.1 0.00 0.00 0.00 58 1009.0
20260505110208 20 25 6.4 16.1 0.00 0.00 0.00 59 1009.0
20260505110112 20 35 3.2 16.1 0.00 0.00 0.00 58 1009.0
20260505102214 21 90 4.8 14.5 0.00 0.00 0.00 54 1009.2
20260505102113 21 84 4.8 14.5 0.00 0.00 0.00 55 1009.3
20260505102012 21 94 4.8 14.5 0.00 0.00 0.00 55 1009.3
20260505101911 21 103 4.8 14.5 0.00 0.00 0.00 56 1009.3
20260505101808 21 66 6.4 14.5 0.00 0.00 0.00 56 1009.4
20260505101707 21 72 6.4 14.5 0.00 0.00 0.00 55 1009.4
20260505101607 21 85 4.8 11.3 0.00 0.00 0.00 55 1009.4
20260505101505 21 115 4.8 9.7 0.00 0.00 0.00 55 1009.4
20260505101403 21 91 6.4 11.3 0.00 0.00 0.00 55 1009.5
20260505101304 21 83 6.4 11.3 0.00 0.00 0.00 56 1009.5
20260505101201 21 45 4.8 11.3 0.00 0.00 0.00 55 1009.6
20260505101100 21 68 4.8 12.9 0.00 0.00 0.00 56 1009.5
20260505101001 21 121 3.2 12.9 0.00 0.00 0.00 56 1009.5
20260505100856 21 97 3.2 12.9 0.00 0.00 0.00 58 1009.4
20260505100755 21 53 4.8 12.9 0.00 0.00 0.00 57 1009.6
20260505100653 20 38 6.4 12.9 0.00 0.00 0.00 56 1009.6
20260505100553 20 80 6.4 12.9 0.00 0.00 0.00 56 1009.5
20260505100457 20 68 6.4 12.9 0.00 0.00 0.00 57 1009.6
20260505100353 20 63 8.0 12.9 0.00 0.00 0.00 56 1009.6
20260505100301 20 63 8.0 12.9 0.00 0.00 0.00 57 1009.7
20260505100151 20 53 6.4 17.7 0.00 0.00 0.00 57 1009.6
20260505100101 20 73 9.7 17.7 0.00 0.00 0.00 58 1009.6
20260505095950 20 66 8.0 17.7 0.00 0.00 0.00 58 1009.6
20260505095847 20 78 8.0 17.7 0.00 0.00 0.00 58 1009.6
20260505095755 20 85 6.4 17.7 0.00 0.00 0.00 57 1009.7
20260505095721 20 72 4.8 17.7 0.00 0.00 0.00 58 1009.6
20260505095647 20 110 8.0 17.7 0.00 0.00 0.00 57 1009.7
20260505095441 20 99 9.7 17.7 0.00 0.00 0.00 58 1009.6
20260505095340 20 45 8.0 17.7 0.00 0.00 0.00 58 1009.6
20260505095238 20 76 4.8 17.7 0.00 0.00 0.00 59 1009.7
20260505095137 20 76 6.4 17.7 0.00 0.00 0.00 58 1009.7
20260505095036 20 85 11.3 17.7 0.00 0.00 0.00 57 1009.7
20260505094935 20 74 11.3 17.7 0.00 0.00 0.00 57 1009.7
20260505094833 20 72 9.7 17.7 0.00 0.00 0.00 58 1009.8
20260505094742 20 83 9.7 12.9 0.00 0.00 0.00 58 1009.7
20260505094709 20 68 6.4 12.9 0.00 0.00 0.00 58 1009.8
20260505094530 20 63 1.6 11.3 0.00 0.00 0.00 58 1009.8
20260505094428 20 60 0.0 9.7 0.00 0.00 0.00 59 1009.8
20260505094329 20 302 0.0 9.7 0.00 0.00 0.00 59 1009.8
20260505094227 20 26 0.0 9.7 0.00 0.00 0.00 61 1009.8
20260505094127 20 64 1.6 9.7 0.00 0.00 0.00 61 1009.8
20260505094025 20 64 1.6 14.5 0.00 0.00 0.00 60 1009.9
20260505093923 20 85 3.2 14.5 0.00 0.00 0.00 60 1009.8
20260505093822 19 84 6.4 14.5 0.00 0.00 0.00 59 1009.9
20260505093722 19 85 6.4 14.5 0.00 0.00 0.00 58 1009.9
20260505093620 19 65 4.8 14.5 0.00 0.00 0.00 58 1009.9
20260505093518 20 70 4.8 14.5 0.00 0.00 0.00 58 1009.9
20260505093415 20 67 4.8 14.5 0.00 0.00 0.00 59 1010.0
20260505093316 20 74 6.4 14.5 0.00 0.00 0.00 59 1010.0
20260505093214 20 74 8.0 14.5 0.00 0.00 0.00 60 1010.0
20260505093113 20 78 8.0 14.5 0.00 0.00 0.00 61 1010.0
20260505093011 20 87 8.0 14.5 0.00 0.00 0.00 61 1010.0
20260505092910 20 68 6.4 14.5 0.00 0.00 0.00 60 1010.0
20260505092808 20 80 1.6 14.5 0.00 0.00 0.00 60 1010.0
20260505092708 20 83 1.6 14.5 0.00 0.00 0.00 61 1010.0
20260505092607 20 60 1.6 14.5 0.00 0.00 0.00 61 1010.0
20260505092506 20 60 9.7 14.5 0.00 0.00 0.00 60 1010.0
20260505092404 20 71 8.0 14.5 0.00 0.00 0.00 60 1010.0
20260505092305 20 78 3.2 14.5 0.00 0.00 0.00 60 1010.0
20260505092201 20 78 6.4 14.5 0.00 0.00 0.00 60 1010.0
20260505092100 20 41 6.4 14.5 0.00 0.00 0.00 60 1010.0
20260505091958 20 27 6.4 14.5 0.00 0.00 0.00 61 1010.0
20260505091858 20 78 3.2 12.9 0.00 0.00 0.00 61 1010.0
20260505091757 20 53 1.6 12.9 0.00 0.00 0.00 61 1010.0
20260505091653 20 92 3.2 12.9 0.00 0.00 0.00 60 1010.1
20260505091552 20 122 4.8 12.9 0.00 0.00 0.00 60 1010.0
20260505091452 20 122 6.4 12.9 0.00 0.00 0.00 62 1010.1
20260505091350 20 115 4.8 12.9 0.00 0.00 0.00 62 1010.0
20260505091249 20 103 1.6 12.9 0.00 0.00 0.00 62 1010.0
20260505091148 19 63 3.2 12.9 0.00 0.00 0.00 62 1010.0
20260505091047 20 76 4.8 12.9 0.00 0.00 0.00 61 1010.1
20260505090946 20 70 6.4 12.9 0.00 0.00 0.00 61 1010.1
20260505090845 20 85 9.7 12.9 0.00 0.00 0.00 61 1010.1
20260505090748 20 62 4.8 12.9 0.00 0.00 0.00 61 1010.1
20260505090714 20 72 1.6 12.9 0.00 0.00 0.00 64 1010.1
20260505090641 20 13 1.6 16.1 0.00 0.00 0.00 64 1010.1
20260505090442 20 72 4.8 16.1 0.00 0.00 0.00 62 1010.1
20260505090339 20 72 4.8 16.1 0.00 0.00 0.00 63 1010.1
20260505090236 20 66 4.8 16.1 0.00 0.00 0.00 62 1010.1
20260505090136 20 91 4.8 16.1 0.00 0.00 0.00 61 1010.1
20260505090038 20 64 4.8 16.1 0.00 0.00 0.00 61 1010.1
20260505085938 20 84 6.4 16.1 0.00 0.00 0.00 63 1010.2
20260505085832 20 80 8.0 16.1 0.00 0.00 0.00 63 1010.2
20260505085731 20 52 9.7 16.1 0.00 0.00 0.00 63 1010.2
20260505085630 20 72 6.4 16.1 0.00 0.00 0.00 63 1010.2
20260505085426 20 80 6.4 12.9 0.00 0.00 0.00 63 1010.1
20260505085326 20 70 6.4 12.9 0.00 0.00 0.00 62 1010.2
20260505085224 20 78 6.4 12.9 0.00 0.00 0.00 63 1010.2
20260505085122 20 85 4.8 12.9 0.00 0.00 0.00 63 1010.2
20260505085021 20 83 6.4 12.9 0.00 0.00 0.00 63 1010.2
20260505084920 20 89 6.4 12.9 0.00 0.00 0.00 62 1010.2
20260505084819 20 101 6.4 12.9 0.00 0.00 0.00 63 1010.3
20260505084718 20 52 6.4 12.9 0.00 0.00 0.00 65 1010.2
20260505084617 20 78 3.2 11.3 0.00 0.00 0.00 66 1010.2
20260505084515 20 93 3.2 6.4 0.00 0.00 0.00 66 1010.2
20260505084413 20 92 3.2 6.4 0.00 0.00 0.00 66 1010.2
20260505084312 19 108 3.2 6.4 0.00 0.00 0.00 66 1010.2
20260505084211 19 120 1.6 6.4 0.00 0.00 0.00 67 1010.2
20260505084110 19 85 1.6 6.4 0.00 0.00 0.00 68 1010.2
20260505084008 18 74 4.8 6.4 0.00 0.00 0.00 69 1010.2
20260505083907 18 66 4.8 6.4 0.00 0.00 0.00 69 1010.2
20260505083806 18 70 1.6 6.4 0.00 0.00 0.00 69 1010.3
20260505083705 18 91 1.6 6.4 0.00 0.00 0.00 69 1010.2
20260505083604 18 138 1.6 6.4 0.00 0.00 0.00 69 1010.2
20260505083501 18 143 1.6 6.4 0.00 0.00 0.00 69 1010.2
20260505083400 18 148 3.2 6.4 0.00 0.00 0.00 69 1010.2
20260505083259 18 136 4.8 8.0 0.00 0.00 0.00 69 1010.3
20260505083157 18 135 3.2 8.0 0.00 0.00 0.00 69 1010.3
20260505083055 18 124 0.0 8.0 0.00 0.00 0.00 69 1010.3
20260505082954 18 112 1.6 8.0 0.00 0.00 0.00 69 1010.3
20260505082853 18 112 3.2 8.0 0.00 0.00 0.00 68 1010.3
20260505082753 18 107 3.2 8.0 0.00 0.00 0.00 68 1010.3
20260505082651 18 104 4.8 8.0 0.00 0.00 0.00 68 1010.3
20260505082550 18 90 4.8 8.0 0.00 0.00 0.00 69 1010.2
20260505082449 18 96 4.8 8.0 0.00 0.00 0.00 69 1010.2
20260505082347 18 105 4.8 8.0 0.00 0.00 0.00 70 1010.2
20260505082248 18 91 3.2 8.0 0.00 0.00 0.00 69 1010.2
20260505082147 18 89 3.2 8.0 0.00 0.00 0.00 70 1010.2
20260505082044 18 95 4.8 12.9 0.00 0.00 0.00 70 1010.3
20260505081943 18 98 4.8 12.9 0.00 0.00 0.00 70 1010.3
20260505081842 18 89 3.2 12.9 0.00 0.00 0.00 71 1010.3
20260505081741 18 116 3.2 12.9 0.00 0.00 0.00 71 1010.2
20260505081640 18 105 3.2 12.9 0.00 0.00 0.00 71 1010.3
20260505081539 18 99 4.8 12.9 0.00 0.00 0.00 70 1010.2
20260505081435 18 93 4.8 12.9 0.00 0.00 0.00 70 1010.3
20260505081334 18 89 6.4 12.9 0.00 0.00 0.00 70 1010.3
20260505081233 18 89 6.4 12.9 0.00 0.00 0.00 70 1010.3
20260505081131 18 95 4.8 12.9 0.00 0.00 0.00 70 1010.3
20260505081030 18 85 3.2 6.4 0.00 0.00 0.00 71 1010.3
20260505080930 18 92 1.6 6.4 0.00 0.00 0.00 71 1010.3
20260505080828 18 93 3.2 6.4 0.00 0.00 0.00 72 1010.3
20260505080726 18 103 3.2 6.4 0.00 0.00 0.00 73 1010.3
20260505080625 18 105 3.2 6.4 0.00 0.00 0.00 72 1010.2
20260505080426 17 78 0.0 6.4 0.00 0.00 0.00 73 1010.3
20260505080322 17 52 0.0 6.4 0.00 0.00 0.00 73 1010.4
20260505080222 17 52 1.6 6.4 0.00 0.00 0.00 73 1010.3
20260505080121 17 51 1.6 6.4 0.00 0.00 0.00 73 1010.4
20260505075923 17 92 3.2 6.4 0.00 0.00 0.00 73 1010.4
20260505075817 17 85 3.2 6.4 0.00 0.00 0.00 73 1010.4
20260505075724 17 84 3.2 6.4 0.00 0.00 0.00 73 1010.4
20260505075653 17 108 3.2 6.4 0.00 0.00 0.00 73 1010.4
20260505075618 17 89 4.8 6.4 0.00 0.00 0.00 72 1010.5
20260505075412 17 112 4.8 6.4 0.00 0.00 0.00 72 1010.4
20260505075312 17 103 3.2 6.4 0.00 0.00 0.00 73 1010.4
20260505075210 17 62 1.6 4.8 0.00 0.00 0.00 73 1010.4
20260505075109 17 326 1.6 6.4 0.00 0.00 0.00 73 1010.4
20260505075007 17 326 0.0 6.4 0.00 0.00 0.00 74 1010.5
20260505074904 17 343 0.0 6.4 0.00 0.00 0.00 74 1010.4
20260505074804 17 344 1.6 6.4 0.00 0.00 0.00 74 1010.4
20260505074703 16 344 0.0 6.4 0.00 0.00 0.00 73 1010.5
20260505074601 16 343 0.0 6.4 0.00 0.00 0.00 75 1010.4
20260505074500 16 48 3.2 6.4 0.00 0.00 0.00 75 1010.5
20260505074359 16 56 3.2 11.3 0.00 0.00 0.00 75 1010.5
20260505074257 16 56 1.6 11.3 0.00 0.00 0.00 75 1010.5
20260505074157 16 58 0.0 11.3 0.00 0.00 0.00 75 1010.5
20260505074057 16 45 1.6 11.3 0.00 0.00 0.00 75 1010.5
20260505073954 16 45 3.2 11.3 0.00 0.00 0.00 75 1010.5
20260505073849 16 45 3.2 11.3 0.00 0.00 0.00 75 1010.5
20260505073742 16 56 1.6 11.3 0.00 0.00 0.00 76 1010.5
20260505073641 16 54 3.2 11.3 0.00 0.00 0.00 77 1010.5
20260505073540 16 323 4.8 11.3 0.00 0.00 0.00 77 1010.5
20260505073438 16 312 4.8 9.7 0.00 0.00 0.00 76 1010.5
20260505073337 15 276 3.2 6.4 0.00 0.00 0.00 76 1010.5
20260505073236 15 298 3.2 6.4 0.00 0.00 0.00 76 1010.5
20260505073135 15 316 1.6 9.7 0.00 0.00 0.00 75 1010.6
20260505073032 15 305 1.6 9.7 0.00 0.00 0.00 76 1010.6
20260505072931 15 303 0.0 9.7 0.00 0.00 0.00 77 1010.6
20260505072830 15 326 0.0 9.7 0.00 0.00 0.00 77 1010.6
20260505072729 15 326 3.2 9.7 0.00 0.00 0.00 78 1010.6
20260505072628 15 326 3.2 9.7 0.00 0.00 0.00 77 1010.6
20260505072526 15 320 1.6 9.7 0.00 0.00 0.00 78 1010.6
20260505072423 15 311 1.6 9.7 0.00 0.00 0.00 78 1010.6
20260505072323 15 303 3.2 9.7 0.00 0.00 0.00 78 1010.6
20260505072219 15 303 4.8 9.7 0.00 0.00 0.00 78 1010.6
20260505072118 15 324 4.8 9.7 0.00 0.00 0.00 78 1010.6
20260505072018 15 321 3.2 9.7 0.00 0.00 0.00 79 1010.6
20260505071918 15 320 1.6 9.7 0.00 0.00 0.00 80 1010.7
20260505071818 15 347 0.0 9.7 0.00 0.00 0.00 80 1010.6
20260505071714 15 14 1.6 9.7 0.00 0.00 0.00 80 1010.7
20260505071641 15 11 3.2 11.3 0.00 0.00 0.00 80 1010.7
20260505071605 15 3 1.6 11.3 0.00 0.00 0.00 80 1010.6
20260505071401 15 332 0.0 11.3 0.00 0.00 0.00 80 1010.7
20260505071256 14 332 1.6 11.3 0.00 0.00 0.00 80 1010.8
20260505071155 14 328 1.6 11.3 0.00 0.00 0.00 80 1010.7
20260505071053 14 328 0.0 11.3 0.00 0.00 0.00 80 1010.7
20260505070951 14 328 1.6 11.3 0.00 0.00 0.00 80 1010.7
20260505070849 14 328 3.2 11.3 0.00 0.00 0.00 81 1010.7
20260505070749 14 326 4.8 11.3 0.00 0.00 0.00 81 1010.7
20260505070648 14 324 6.4 11.3 0.00 0.00 0.00 80 1010.7
20260505070547 14 330 4.8 11.3 0.00 0.00 0.00 80 1010.7
20260505070444 14 324 1.6 11.3 0.00 0.00 0.00 81 1010.7
20260505070344 14 305 3.2 6.4 0.00 0.00 0.00 81 1010.7
20260505070244 14 303 3.2 6.4 0.00 0.00 0.00 81 1010.7
20260505070142 14 318 4.8 6.4 0.00 0.00 0.00 81 1010.7
20260505070041 14 328 4.8 6.4 0.00 0.00 0.00 80 1010.6
20260505065934 14 327 3.2 6.4 0.00 0.00 0.00 81 1010.7
20260505065833 14 325 3.2 6.4 0.00 0.00 0.00 81 1010.6
20260505065731 14 326 1.6 6.4 0.00 0.00 0.00 81 1010.7
20260505065630 14 322 0.0 6.4 0.00 0.00 0.00 81 1010.7
20260505065530 14 322 1.6 6.4 0.00 0.00 0.00 81 1010.7
20260505065429 14 322 1.6 6.4 0.00 0.00 0.00 81 1010.7
20260505065327 14 322 3.2 6.4 0.00 0.00 0.00 81 1010.7
20260505065225 14 329 3.2 6.4 0.00 0.00 0.00 81 1010.7
20260505065124 14 327 1.6 6.4 0.00 0.00 0.00 81 1010.7
20260505065023 14 328 0.0 6.4 0.00 0.00 0.00 82 1010.7
20260505064922 14 328 0.0 9.7 0.00 0.00 0.00 81 1010.7
20260505064821 14 328 0.0 9.7 0.00 0.00 0.00 81 1010.8
20260505064719 14 328 0.0 9.7 0.00 0.00 0.00 81 1010.8
20260505064616 14 328 1.6 9.7 0.00 0.00 0.00 81 1010.9
20260505064517 14 328 1.6 9.7 0.00 0.00 0.00 81 1010.8
20260505064415 14 328 0.0 9.7 0.00 0.00 0.00 81 1010.9
20260505064315 14 328 3.2 9.7 0.00 0.00 0.00 81 1010.9
20260505064213 14 328 3.2 9.7 0.00 0.00 0.00 81 1010.9
20260505064113 14 323 3.2 9.7 0.00 0.00 0.00 82 1010.8
20260505064011 14 328 3.2 9.7 0.00 0.00 0.00 82 1010.8
20260505063910 14 326 3.2 9.7 0.00 0.00 0.00 81 1010.8
20260505063803 14 326 4.8 9.7 0.00 0.00 0.00 81 1010.8
20260505063702 14 325 3.2 9.7 0.00 0.00 0.00 81 1010.9
20260505063601 14 330 3.2 6.4 0.00 0.00 0.00 81 1010.9
20260505063401 13 331 0.0 6.4 0.00 0.00 0.00 82 1010.9
20260505063257 13 332 1.6 6.4 0.00 0.00 0.00 82 1010.9
20260505063151 13 332 1.6 6.4 0.00 0.00 0.00 82 1010.9
20260505063054 13 334 0.0 6.4 0.00 0.00 0.00 82 1010.9
20260505062846 13 2 1.6 8.0 0.00 0.00 0.00 82 1010.9
20260505062745 13 2 3.2 8.0 0.00 0.00 0.00 82 1010.9
20260505062643 13 326 1.6 8.0 0.00 0.00 0.00 82 1010.9
20260505062541 13 326 1.6 9.7 0.00 0.00 0.00 82 1011.0
20260505062340 13 335 1.6 9.7 0.00 0.00 0.00 82 1011.0
20260505062240 13 54 3.2 9.7 0.00 0.00 0.00 82 1011.0
20260505062139 13 61 3.2 9.7 0.00 0.00 0.00 82 1010.9
20260505062027 13 62 1.6 9.7 0.00 0.00 0.00 83 1011.0
20260505061924 13 324 0.0 9.7 0.00 0.00 0.00 83 1011.0
20260505061825 13 324 3.2 9.7 0.00 0.00 0.00 83 1011.0
20260505061723 13 323 4.8 9.7 0.00 0.00 0.00 82 1011.0
20260505061621 13 324 1.6 9.7 0.00 0.00 0.00 83 1011.0
20260505061521 13 331 0.0 6.4 0.00 0.00 0.00 83 1011.1
20260505061418 13 331 1.6 6.4 0.00 0.00 0.00 82 1011.1
20260505061317 13 331 1.6 6.4 0.00 0.00 0.00 83 1011.1
20260505061215 13 346 0.0 6.4 0.00 0.00 0.00 83 1011.1
20260505061127 13 17 0.0 6.4 0.00 0.00 0.00 82 1011.1
20260505061054 13 17 0.0 6.4 0.00 0.00 0.00 82 1011.1
20260505060913 13 17 1.6 6.4 0.00 0.00 0.00 82 1011.1
20260505060811 13 10 1.6 6.4 0.00 0.00 0.00 82 1011.1
20260505060707 13 10 0.0 6.4 0.00 0.00 0.00 83 1011.0
20260505060607 13 334 0.0 4.8 0.00 0.00 0.00 83 1011.1
20260505060506 13 334 0.0 6.4 0.00 0.00 0.00 83 1011.0
20260505060405 13 334 1.6 6.4 0.00 0.00 0.00 83 1011.1
20260505060251 13 334 1.6 6.4 0.00 0.00 0.00 83 1011.0
20260505060153 13 330 1.6 6.4 0.00 0.00 0.00 83 1011.1
20260505060100 13 330 1.6 6.4 0.00 0.00 0.00 83 1011.0
20260505055945 13 330 1.6 6.4 0.00 0.00 0.00 83 1011.2
20260505055849 13 241 3.2 6.4 0.00 0.00 0.00 82 1011.2
20260505055743 13 241 3.2 6.4 0.00 0.00 0.00 82 1011.1
20260505055643 13 254 3.2 6.4 0.00 0.00 0.00 82 1011.2
20260505055541 13 248 0.0 6.4 0.00 0.00 0.00 83 1011.1
20260505055339 13 253 1.6 11.3 0.00 0.00 0.00 83 1011.2
20260505055232 13 242 1.6 11.3 0.00 0.00 0.00 83 1011.1
20260505055124 13 224 0.0 11.3 0.00 0.00 0.00 83 1011.1
20260505055023 13 320 0.0 11.3 0.00 0.00 0.00 83 1011.1
20260505054921 13 320 1.6 11.3 0.00 0.00 0.00 83 1011.1
20260505054820 13 320 1.6 11.3 0.00 0.00 0.00 83 1011.1
20260505054719 13 312 3.2 11.3 0.00 0.00 0.00 83 1011.2
20260505054619 13 323 3.2 11.3 0.00 0.00 0.00 82 1011.1
20260505054518 13 314 3.2 11.3 0.00 0.00 0.00 82 1011.2
20260505054411 13 314 4.8 11.3 0.00 0.00 0.00 82 1011.2
20260505054310 13 324 4.8 11.3 0.00 0.00 0.00 82 1011.1
20260505054209 13 327 3.2 11.3 0.00 0.00 0.00 82 1011.1
20260505054107 13 314 3.2 8.0 0.00 0.00 0.00 82 1011.1
20260505054006 13 282 0.0 8.0 0.00 0.00 0.00 83 1011.1
20260505053905 13 287 0.0 8.0 0.00 0.00 0.00 83 1011.1
20260505053759 13 318 1.6 8.0 0.00 0.00 0.00 83 1011.1
20260505053659 13 318 1.6 11.3 0.00 0.00 0.00 83 1011.0
20260505053555 12 313 0.0 11.3 0.00 0.00 0.00 83 1011.0
20260505053453 12 267 1.6 11.3 0.00 0.00 0.00 83 1011.0
20260505053353 12 267 3.2 11.3 0.00 0.00 0.00 83 1011.0
20260505053252 12 267 3.2 11.3 0.00 0.00 0.00 83 1011.0
20260505053152 12 289 0.0 11.3 0.00 0.00 0.00 84 1011.0
20260505053050 12 322 0.0 11.3 0.00 0.00 0.00 85 1010.9
20260505052951 12 322 3.2 11.3 0.00 0.00 0.00 84 1011.1
20260505052846 12 322 3.2 12.9 0.00 0.00 0.00 84 1011.0
20260505052745 12 289 1.6 12.9 0.00 0.00 0.00 84 1011.0
20260505052647 12 323 1.6 12.9 0.00 0.00 0.00 84 1011.0
20260505052545 12 318 0.0 12.9 0.00 0.00 0.00 84 1011.0
20260505052442 12 318 1.6 12.9 0.00 0.00 0.00 84 1011.0
20260505052344 12 318 3.2 12.9 0.00 0.00 0.00 84 1010.8
20260505052238 12 319 1.6 12.9 0.00 0.00 0.00 84 1010.9
20260505052137 12 321 3.2 12.9 0.00 0.00 0.00 84 1010.9
20260505052036 12 319 4.8 12.9 0.00 0.00 0.00 84 1010.9
20260505051935 12 322 1.6 12.9 0.00 0.00 0.00 84 1010.9
20260505051836 12 325 1.6 11.3 0.00 0.00 0.00 84 1010.9
20260505051733 12 343 3.2 11.3 0.00 0.00 0.00 84 1010.9
20260505051632 12 13 1.6 11.3 0.00 0.00 0.00 84 1010.8
20260505051530 12 326 1.6 11.3 0.00 0.00 0.00 84 1010.8
20260505051328 12 325 3.2 11.3 0.00 0.00 0.00 85 1010.8
20260505051227 12 329 1.6 9.7 0.00 0.00 0.00 85 1010.8
20260505051126 12 330 1.6 4.8 0.00 0.00 0.00 85 1010.8
20260505051025 12 330 0.0 6.4 0.00 0.00 0.00 85 1010.9
20260505050926 12 325 0.0 6.4 0.00 0.00 0.00 85 1010.9
20260505050822 12 326 0.0 6.4 0.00 0.00 0.00 85 1010.8
20260505050722 12 325 0.0 6.4 0.00 0.00 0.00 85 1010.8
20260505050621 12 325 1.6 6.4 0.00 0.00 0.00 85 1010.9
20260505050518 12 326 1.6 6.4 0.00 0.00 0.00 85 1010.8
20260505050313 12 343 1.6 6.4 0.00 0.00 0.00 85 1010.9
20260505050211 12 343 1.6 6.4 0.00 0.00 0.00 85 1010.8
20260505050110 12 324 0.0 6.4 0.00 0.00 0.00 86 1010.9
20260505041709 12 316 9.7 20.9 0.00 0.00 0.00 85 1010.9
20260505041608 12 318 9.7 20.9 0.00 0.00 0.00 85 1011.0
20260505041508 12 326 6.4 20.9 0.00 0.00 0.00 85 1011.0
20260505041409 12 323 6.4 19.3 0.00 0.00 0.00 85 1011.0
20260505041321 12 328 9.7 20.9 0.00 0.00 0.00 84 1011.0
20260505041247 12 327 12.9 20.9 0.00 0.00 0.00 84 1011.0
20260505041108 12 327 14.5 20.9 0.00 0.00 0.00 84 1011.0
20260505041035 12 318 12.9 20.9 0.00 0.00 0.00 84 1011.0
20260505041002 12 320 11.3 20.9 0.00 0.00 0.00 84 1011.0
20260505040757 12 328 12.9 20.9 0.00 0.00 0.00 84 1011.1
20260505040656 12 320 11.3 22.5 0.00 0.00 0.00 84 1011.1
20260505040615 12 340 11.3 22.5 0.00 0.00 0.00 84 1011.0
20260505040541 12 317 12.9 22.5 0.00 0.00 0.00 84 1011.1
20260505040456 12 317 12.9 22.5 0.00 0.00 0.00 84 1011.1
20260505040250 12 325 11.3 22.5 0.00 0.00 0.00 84 1011.2
20260505040150 12 324 12.9 22.5 0.00 0.00 0.00 84 1011.1
20260505040056 12 324 16.1 22.5 0.00 0.00 0.00 84 1011.2
20260505035946 12 322 17.7 22.5 0.00 0.00 0.00 84 1011.2
20260505035846 12 330 14.5 22.5 0.00 0.00 0.00 84 1011.2
20260505035745 12 322 14.5 22.5 0.00 0.00 0.00 84 1011.1
20260505035642 12 335 12.9 22.5 0.00 0.00 0.00 84 1011.2
20260505035542 12 320 11.3 22.5 0.00 0.00 0.00 84 1011.1
20260505035441 12 324 12.9 22.5 0.00 0.00 0.00 84 1011.2
20260505035339 12 320 14.5 22.5 0.00 0.00 0.00 84 1011.2
20260505035238 12 334 14.5 22.5 0.00 0.00 0.00 84 1011.1
20260505035136 12 325 12.9 22.5 0.00 0.00 0.00 84 1011.1
20260505035036 12 334 11.3 22.5 0.00 0.00 0.00 84 1011.1
20260505034934 12 323 9.7 22.5 0.00 0.00 0.00 84 1011.1
20260505034833 12 319 11.3 22.5 0.00 0.00 0.00 84 1011.2
20260505034733 12 331 11.3 22.5 0.00 0.00 0.00 84 1011.1
20260505034632 12 333 9.7 22.5 0.00 0.00 0.00 84 1011.2
20260505034530 12 320 11.3 22.5 0.00 0.00 0.00 84 1011.2
20260505034429 12 332 12.9 19.3 0.00 0.00 0.00 84 1011.2
20260505034327 12 329 9.7 19.3 0.00 0.00 0.00 83 1011.2
20260505034226 12 332 9.7 19.3 0.00 0.00 0.00 84 1011.2
20260505034125 12 320 6.4 19.3 0.00 0.00 0.00 84 1011.2
20260505034023 12 329 6.4 17.7 0.00 0.00 0.00 83 1011.2
20260505033922 12 335 8.0 17.7 0.00 0.00 0.00 83 1011.2
20260505033820 12 320 6.4 17.7 0.00 0.00 0.00 83 1011.3
20260505033719 12 318 8.0 17.7 0.00 0.00 0.00 83 1011.3
20260505033618 12 322 9.7 17.7 0.00 0.00 0.00 83 1011.4
20260505033517 12 326 6.4 14.5 0.00 0.00 0.00 83 1011.3
20260505033415 12 324 6.4 14.5 0.00 0.00 0.00 83 1011.3
20260505033313 12 326 6.4 14.5 0.00 0.00 0.00 83 1011.4
20260505033212 12 326 4.8 14.5 0.00 0.00 0.00 83 1011.4
20260505033111 12 321 6.4 14.5 0.00 0.00 0.00 83 1011.4
20260505033010 12 329 6.4 14.5 0.00 0.00 0.00 83 1011.4
20260505032908 12 311 4.8 14.5 0.00 0.00 0.00 83 1011.4
20260505032820 12 324 3.2 14.5 0.00 0.00 0.00 82 1011.3
20260505032743 12 319 3.2 14.5 0.00 0.00 0.00 82 1011.4
20260505032605 12 310 3.2 17.7 0.00 0.00 0.00 82 1011.5
20260505032531 12 328 1.6 19.3 0.00 0.00 0.00 82 1011.4
20260505032458 12 324 3.2 19.3 0.00 0.00 0.00 82 1011.4
20260505032306 12 328 6.4 19.3 0.00 0.00 0.00 82 1011.4
20260505032154 12 328 4.8 19.3 0.00 0.00 0.00 82 1011.5
20260505032053 12 335 3.2 19.3 0.00 0.00 0.00 82 1011.4
20260505031950 12 328 3.2 19.3 0.00 0.00 0.00 82 1011.4
20260505031848 12 328 8.0 19.3 0.00 0.00 0.00 82 1011.4
20260505031747 12 324 14.5 20.9 0.00 0.00 0.00 82 1011.4
20260505031645 12 328 11.3 20.9 0.00 0.00 0.00 82 1011.5
20260505031544 12 322 8.0 20.9 0.00 0.00 0.00 81 1011.4
20260505031443 12 322 9.7 20.9 0.00 0.00 0.00 81 1011.4
20260505031346 12 327 11.3 20.9 0.00 0.00 0.00 81 1011.4
20260505031241 12 324 9.7 20.9 0.00 0.00 0.00 81 1011.4
20260505031141 12 323 11.3 22.5 0.00 0.00 0.00 81 1011.4
20260505031039 12 318 11.3 22.5 0.00 0.00 0.00 81 1011.4
20260505030938 12 319 14.5 22.5 0.00 0.00 0.00 81 1011.3
20260505030735 12 318 11.3 22.5 0.00 0.00 0.00 81 1011.4
20260505030633 12 328 12.9 22.5 0.00 0.00 0.00 81 1011.4
20260505030533 12 325 12.9 22.5 0.00 0.00 0.00 81 1011.3
20260505030432 12 322 11.3 22.5 0.00 0.00 0.00 81 1011.3
20260505030330 12 321 14.5 22.5 0.00 0.00 0.00 81 1011.4
20260505030230 12 339 16.1 22.5 0.00 0.00 0.00 81 1011.4
20260505030128 12 328 14.5 20.9 0.00 0.00 0.00 81 1011.4
20260505030027 12 318 14.5 19.3 0.00 0.00 0.00 81 1011.4
20260505025926 12 324 14.5 19.3 0.00 0.00 0.00 81 1011.5
20260505025824 12 309 14.5 20.9 0.00 0.00 0.00 81 1011.5
20260505025722 12 332 14.5 20.9 0.00 0.00 0.00 81 1011.5
20260505025622 12 328 14.5 20.9 0.00 0.00 0.00 81 1011.5
20260505025520 12 332 11.3 20.9 0.00 0.00 0.00 81 1011.5
20260505025418 12 323 9.7 20.9 0.00 0.00 0.00 81 1011.4
20260505025318 12 323 11.3 20.9 0.00 0.00 0.00 81 1011.4
20260505025217 12 326 12.9 20.9 0.00 0.00 0.00 81 1011.4
20260505025115 12 322 12.9 20.9 0.00 0.00 0.00 81 1011.5
20260505025013 12 324 12.9 20.9 0.00 0.00 0.00 81 1011.5
20260505024911 12 322 12.9 20.9 0.00 0.00 0.00 80 1011.5
20260505024811 12 328 12.9 20.9 0.00 0.00 0.00 80 1011.5
20260505024709 12 323 14.5 20.9 0.00 0.00 0.00 80 1011.5
20260505024607 12 328 14.5 20.9 0.00 0.00 0.00 80 1011.5
20260505024507 12 321 14.5 20.9 0.00 0.00 0.00 80 1011.5
20260505024406 12 316 14.5 20.9 0.00 0.00 0.00 80 1011.5
20260505024304 12 319 12.9 22.5 0.00 0.00 0.00 80 1011.5
20260505024202 12 318 16.1 22.5 0.00 0.00 0.00 80 1011.5
20260505024101 12 336 14.5 22.5 0.00 0.00 0.00 80 1011.5
20260505023959 12 318 11.3 22.5 0.00 0.00 0.00 80 1011.6
20260505023858 12 312 11.3 22.5 0.00 0.00 0.00 80 1011.5
20260505023757 12 322 12.9 22.5 0.00 0.00 0.00 80 1011.5
20260505023654 12 332 12.9 22.5 0.00 0.00 0.00 80 1011.5
20260505023555 12 322 12.9 22.5 0.00 0.00 0.00 80 1011.6
20260505023453 12 330 16.1 22.5 0.00 0.00 0.00 80 1011.6
20260505023352 12 326 14.5 22.5 0.00 0.00 0.00 80 1011.6
20260505023253 12 324 12.9 22.5 0.00 0.00 0.00 80 1011.6
20260505023145 12 339 14.5 22.5 0.00 0.00 0.00 80 1011.5
20260505023045 12 317 14.5 22.5 0.00 0.00 0.00 80 1011.6
20260505023014 12 328 12.9 22.5 0.00 0.00 0.00 80 1011.6
20260505022941 12 316 14.5 22.5 0.00 0.00 0.00 80 1011.7
20260505022749 12 331 14.5 22.5 0.00 0.00 0.00 80 1011.7
20260505022639 12 318 12.9 22.5 0.00 0.00 0.00 81 1011.7
20260505022538 12 322 9.7 20.9 0.00 0.00 0.00 81 1011.7
20260505022436 12 326 11.3 22.5 0.00 0.00 0.00 81 1011.7
20260505022340 12 330 14.5 22.5 0.00 0.00 0.00 81 1011.7
20260505022235 12 332 14.5 22.5 0.00 0.00 0.00 81 1011.7
20260505022135 12 314 14.5 22.5 0.00 0.00 0.00 81 1011.7
20260505022039 12 326 12.9 22.5 0.00 0.00 0.00 81 1011.8
20260505021930 12 316 11.3 22.5 0.00 0.00 0.00 80 1011.8
20260505021832 12 316 14.5 22.5 0.00 0.00 0.00 80 1011.8
20260505021732 12 322 12.9 22.5 0.00 0.00 0.00 80 1011.8
20260505021630 12 319 12.9 22.5 0.00 0.00 0.00 80 1011.7
20260505021525 12 325 11.3 22.5 0.00 0.00 0.00 80 1011.7
20260505021427 12 325 9.7 20.9 0.00 0.00 0.00 80 1011.8
20260505021328 13 318 11.3 20.9 0.00 0.00 0.00 80 1011.8
20260505021223 13 326 12.9 20.9 0.00 0.00 0.00 80 1011.8
20260505021123 13 320 12.9 20.9 0.00 0.00 0.00 80 1011.8
20260505021021 13 314 11.3 20.9 0.00 0.00 0.00 80 1011.8
20260505020921 13 323 9.7 20.9 0.00 0.00 0.00 80 1011.8
20260505020719 13 320 14.5 20.9 0.00 0.00 0.00 80 1011.9
20260505020616 13 311 12.9 20.9 0.00 0.00 0.00 80 1011.9
20260505020516 13 324 12.9 19.3 0.00 0.00 0.00 80 1011.9
20260505020414 13 321 12.9 19.3 0.00 0.00 0.00 80 1012.0
20260505020312 13 320 11.3 19.3 0.00 0.00 0.00 80 1012.0
20260505020212 13 313 12.9 19.3 0.00 0.00 0.00 80 1011.9
20260505020111 13 336 9.7 19.3 0.00 0.00 0.00 80 1012.0
20260505020020 13 318 6.4 17.7 0.00 0.00 0.00 80 1012.0
20260505015944 13 293 6.4 17.7 0.00 0.00 0.00 80 1012.0
20260505015806 13 318 8.0 17.7 0.00 0.00 0.00 80 1012.0
20260505015706 13 320 6.4 17.7 0.00 0.00 0.00 80 1012.0
20260505015604 13 315 6.4 17.7 0.00 0.00 0.00 80 1012.0
20260505015503 13 294 9.7 17.7 0.00 0.00 0.00 80 1012.0
20260505015402 13 322 9.7 17.7 0.00 0.00 0.00 80 1012.0
20260505015300 13 328 8.0 17.7 0.00 0.00 0.00 80 1012.0
20260505015158 13 312 8.0 17.7 0.00 0.00 0.00 80 1011.9
20260505015057 13 325 9.7 17.7 0.00 0.00 0.00 80 1011.9
20260505014957 13 312 12.9 17.7 0.00 0.00 0.00 80 1011.8
20260505014855 13 314 12.9 17.7 0.00 0.00 0.00 80 1011.8
20260505014751 13 312 11.3 17.7 0.00 0.00 0.00 80 1011.9
20260505014652 13 323 12.9 17.7 0.00 0.00 0.00 80 1011.9
20260505014550 13 324 14.5 17.7 0.00 0.00 0.00 80 1011.8
20260505014446 13 328 11.3 17.7 0.00 0.00 0.00 80 1011.9
20260505014349 13 310 11.3 16.1 0.00 0.00 0.00 80 1011.8
20260505014248 13 318 9.7 14.5 0.00 0.00 0.00 80 1011.9
20260505014144 13 324 6.4 14.5 0.00 0.00 0.00 80 1011.8
20260505014042 13 327 4.8 14.5 0.00 0.00 0.00 80 1011.9
20260505013942 13 326 6.4 14.5 0.00 0.00 0.00 80 1012.0
20260505013838 13 324 6.4 14.5 0.00 0.00 0.00 79 1012.0
20260505013737 13 330 3.2 12.9 0.00 0.00 0.00 79 1012.0
20260505013639 13 316 3.2 9.7 0.00 0.00 0.00 79 1012.2
20260505013534 13 296 3.2 9.7 0.00 0.00 0.00 79 1012.2
20260505013432 13 295 3.2 9.7 0.00 0.00 0.00 79 1012.2
20260505013336 13 309 1.6 9.7 0.00 0.00 0.00 79 1012.2
20260505013245 13 326 3.2 9.7 0.00 0.00 0.00 79 1012.2
20260505013134 13 326 3.2 9.7 0.00 0.00 0.00 79 1012.2
20260505013032 13 326 3.2 9.7 0.00 0.00 0.00 78 1012.2
20260505012931 13 318 0.0 6.4 0.00 0.00 0.00 78 1012.2
20260505012829 13 291 0.0 6.4 0.00 0.00 0.00 78 1012.1
20260505012730 13 314 1.6 6.4 0.00 0.00 0.00 78 1012.1
20260505012626 13 314 3.2 6.4 0.00 0.00 0.00 78 1012.2
20260505012524 13 310 1.6 6.4 0.00 0.00 0.00 78 1012.2
20260505012423 13 325 0.0 3.2 0.00 0.00 0.00 77 1012.2
20260505012219 13 325 0.0 3.2 0.00 0.00 0.00 77 1012.2
20260505012116 13 325 0.0 3.2 0.00 0.00 0.00 77 1012.3
20260505012016 13 325 0.0 1.6 0.00 0.00 0.00 77 1012.3
20260505011945 13 325 0.0 1.6 0.00 0.00 0.00 77 1012.3
20260505011915 13 325 0.0 1.6 0.00 0.00 0.00 77 1012.3
20260505011711 13 325 0.0 4.8 0.00 0.00 0.00 77 1012.3
20260505011613 13 325 0.0 4.8 0.00 0.00 0.00 77 1012.3
20260505011512 13 325 0.0 4.8 0.00 0.00 0.00 77 1012.3
20260505011411 13 325 0.0 6.4 0.00 0.00 0.00 77 1012.3
20260505011209 13 325 0.0 12.9 0.00 0.00 0.00 77 1012.3
20260505011108 13 325 0.0 12.9 0.00 0.00 0.00 77 1012.3
20260505011006 13 325 0.0 12.9 0.00 0.00 0.00 77 1012.3
20260505010906 13 325 1.6 12.9 0.00 0.00 0.00 77 1012.3
20260505010657 13 325 0.0 16.1 0.00 0.00 0.00 77 1012.2
20260505010551 13 324 1.6 16.1 0.00 0.00 0.00 77 1012.2
20260505010450 13 328 3.2 16.1 0.00 0.00 0.00 77 1012.3
20260505010347 13 328 6.4 16.1 0.00 0.00 0.00 77 1012.2
20260505010247 13 324 4.8 16.1 0.00 0.00 0.00 77 1012.2
20260505010146 13 316 6.4 16.1 0.00 0.00 0.00 77 1012.2
20260505010053 13 329 8.0 16.1 0.00 0.00 0.00 77 1012.2
20260505005944 13 324 8.0 16.1 0.00 0.00 0.00 77 1012.2
20260505005844 13 323 6.4 16.1 0.00 0.00 0.00 77 1012.2
20260505005742 13 317 6.4 14.5 0.00 0.00 0.00 77 1012.2
20260505005640 13 326 4.8 14.5 0.00 0.00 0.00 77 1012.2
20260505005539 13 326 4.8 12.9 0.00 0.00 0.00 77 1012.2
20260505005437 13 316 4.8 12.9 0.00 0.00 0.00 77 1012.2
20260505005336 13 309 3.2 11.3 0.00 0.00 0.00 77 1012.3
20260505005235 13 304 3.2 11.3 0.00 0.00 0.00 77 1012.2
20260505005135 13 328 3.2 16.1 0.00 0.00 0.00 77 1012.3
20260505005034 14 332 1.6 16.1 0.00 0.00 0.00 77 1012.3
20260505004932 13 318 0.0 16.1 0.00 0.00 0.00 76 1012.4
20260505004830 14 318 3.2 16.1 0.00 0.00 0.00 76 1012.3
20260505004724 13 310 6.4 16.1 0.00 0.00 0.00 76 1012.4
20260505004618 14 322 4.8 16.1 0.00 0.00 0.00 76 1012.4
20260505004520 14 321 3.2 17.7 0.00 0.00 0.00 76 1012.4
20260505004417 14 323 4.8 17.7 0.00 0.00 0.00 76 1012.3
20260505004314 14 324 9.7 17.7 0.00 0.00 0.00 76 1012.3
20260505004213 14 328 11.3 17.7 0.00 0.00 0.00 76 1012.3
20260505004113 14 339 8.0 17.7 0.00 0.00 0.00 76 1012.3
20260505004011 14 316 8.0 19.3 0.00 0.00 0.00 76 1012.3
20260505003909 14 326 8.0 19.3 0.00 0.00 0.00 76 1012.3
20260505003808 14 323 8.0 19.3 0.00 0.00 0.00 76 1012.3
20260505003707 14 328 9.7 19.3 0.00 0.00 0.00 76 1012.3
20260505003605 14 330 11.3 19.3 0.00 0.00 0.00 76 1012.2
20260505003505 14 326 9.7 19.3 0.00 0.00 0.00 76 1012.3
20260505003403 14 327 9.7 19.3 0.00 0.00 0.00 76 1012.3
20260505003303 14 322 11.3 19.3 0.00 0.00 0.00 75 1012.3
20260505003201 14 323 12.9 19.3 0.00 0.00 0.00 75 1012.3
20260505003059 14 326 9.7 19.3 0.00 0.00 0.00 75 1012.3
20260505002958 14 326 9.7 19.3 0.00 0.00 0.00 75 1012.3
20260505002857 14 331 11.3 19.3 0.00 0.00 0.00 75 1012.3
20260505002654 14 331 9.7 19.3 0.00 0.00 0.00 75 1012.4
20260505002553 14 328 12.9 19.3 0.00 0.00 0.00 75 1012.3
20260505002452 14 324 14.5 19.3 0.00 0.00 0.00 75 1012.4
20260505002349 14 325 11.3 19.3 0.00 0.00 0.00 75 1012.4
20260505002247 14 317 9.7 19.3 0.00 0.00 0.00 75 1012.4
20260505002145 14 330 11.3 19.3 0.00 0.00 0.00 75 1012.3
20260505002044 14 322 11.3 19.3 0.00 0.00 0.00 75 1012.3
20260505001943 14 312 9.7 19.3 0.00 0.00 0.00 75 1012.4
20260505001842 14 323 9.7 19.3 0.00 0.00 0.00 75 1012.4
20260505001741 14 326 9.7 19.3 0.00 0.00 0.00 75 1012.4
20260505001640 14 326 8.0 19.3 0.00 0.00 0.00 75 1012.4
20260505001538 14 328 9.7 19.3 0.00 0.00 0.00 75 1012.5
20260505001437 14 326 8.0 17.7 0.00 0.00 0.00 75 1012.5
20260505001336 14 327 8.0 17.7 0.00 0.00 0.00 75 1012.5
20260505001235 14 324 8.0 16.1 0.00 0.00 0.00 75 1012.6
20260505001132 14 312 8.0 16.1 0.00 0.00 0.00 75 1012.5
20260505001031 14 336 8.0 16.1 0.00 0.00 0.00 75 1012.6
20260505000930 14 334 8.0 16.1 0.00 0.00 0.00 75 1012.5
20260505000830 14 334 9.7 16.1 0.00 0.00 0.00 75 1012.6
20260505000729 14 328 9.7 16.1 0.00 0.00 0.00 75 1012.6
20260505000627 14 324 6.4 16.1 0.00 0.00 0.00 75 1012.6
20260505000526 14 329 6.4 14.5 0.00 0.00 0.00 75 1012.6
20260505000425 14 337 6.4 12.9 0.00 0.00 0.00 75 1012.6
20260505000325 14 330 6.4 12.9 0.00 0.00 0.00 75 1012.7
20260505000226 14 330 4.8 12.9 0.00 0.00 0.00 75 1012.6
20260505000121 14 324 4.8 12.9 0.00 0.00 0.00 75 1012.7
20260505000019 14 326 4.8 12.9 0.00 0.00 0.00 75 1012.7
20260504235917 14 326 3.2 12.9 0.00 0.00 0.00 75 1012.8
20260504235817 14 330 4.8 12.9 0.00 0.00 0.00 75 1012.8
20260504235714 14 329 3.2 12.9 0.00 0.00 0.00 75 1012.7
20260504235613 14 328 1.6 11.3 0.00 0.00 0.00 75 1012.7
20260504235512 14 328 1.6 11.3 0.00 0.00 0.00 75 1012.8
20260504235412 14 324 3.2 11.3 0.00 0.00 0.00 75 1012.8
20260504235310 14 328 1.6 11.3 0.00 0.00 0.00 74 1012.8
20260504235212 14 320 1.6 11.3 0.00 0.00 0.00 75 1012.8
20260504235109 14 316 4.8 11.3 0.00 0.00 0.00 75 1012.7
20260504235009 14 336 6.4 11.3 0.00 0.00 0.00 74 1012.8
20260504234932 14 328 4.8 11.3 0.00 0.00 0.00 74 1012.8
20260504234859 14 319 3.2 11.3 0.00 0.00 0.00 74 1012.7
20260504234704 14 324 3.2 8.0 0.00 0.00 0.00 74 1012.8
20260504234602 14 328 1.6 8.0 0.00 0.00 0.00 74 1012.8
20260504234501 14 319 1.6 6.4 0.00 0.00 0.00 74 1012.8
20260504234400 14 309 0.0 4.8 0.00 0.00 0.00 74 1012.8
20260504234259 14 305 0.0 4.8 0.00 0.00 0.00 74 1012.8
20260504234202 14 249 0.0 4.8 0.00 0.00 0.00 73 1012.8
20260504234056 14 249 0.0 4.8 0.00 0.00 0.00 73 1012.8
20260504233943 14 249 1.6 4.8 0.00 0.00 0.00 73 1012.8
20260504233842 14 249 1.6 4.8 0.00 0.00 0.00 73 1012.9
20260504233640 14 272 1.6 4.8 0.00 0.00 0.00 73 1012.8
20260504233538 14 220 0.0 4.8 0.00 0.00 0.00 74 1012.8
20260504233438 14 274 0.0 4.8 0.00 0.00 0.00 74 1012.9
20260504233332 14 274 3.2 4.8 0.00 0.00 0.00 74 1012.8
20260504233230 14 274 1.6 4.8 0.00 0.00 0.00 74 1012.8
20260504233143 14 255 0.0 3.2 0.00 0.00 0.00 74 1012.8
20260504233113 14 317 0.0 3.2 0.00 0.00 0.00 74 1012.8
20260504232935 14 312 0.0 1.6 0.00 0.00 0.00 74 1012.9
20260504232900 14 312 0.0 1.6 0.00 0.00 0.00 74 1012.9
20260504232719 14 311 0.0 1.6 0.00 0.00 0.00 73 1012.9
20260504232620 14 308 0.0 1.6 0.00 0.00 0.00 73 1012.9
20260504232514 14 308 0.0 1.6 0.00 0.00 0.00 73 1012.9
20260504232414 14 308 0.0 1.6 0.00 0.00 0.00 73 1012.9
20260504232322 14 308 0.0 1.6 0.00 0.00 0.00 73 1012.9
20260504232211 14 308 0.0 1.6 0.00 0.00 0.00 73 1012.9
20260504232111 15 307 0.0 1.6 0.00 0.00 0.00 73 1012.9
20260504232008 14 307 0.0 1.6 0.00 0.00 0.00 73 1012.9
20260504231908 14 307 0.0 1.6 0.00 0.00 0.00 73 1012.9
20260504231807 15 307 0.0 1.6 0.00 0.00 0.00 73 1012.9
20260504231709 14 307 0.0 1.6 0.00 0.00 0.00 73 1012.9
20260504231605 14 307 0.0 1.6 0.00 0.00 0.00 72 1012.9
20260504231511 15 307 0.0 1.6 0.00 0.00 0.00 72 1012.9
20260504231403 14 307 0.0 1.6 0.00 0.00 0.00 72 1012.9
20260504231300 14 307 0.0 3.2 0.00 0.00 0.00 72 1013.0
20260504231201 14 307 0.0 3.2 0.00 0.00 0.00 72 1012.9
20260504231101 14 307 0.0 3.2 0.00 0.00 0.00 72 1013.0
20260504230951 14 307 0.0 4.8 0.00 0.00 0.00 72 1012.9
20260504230849 14 307 0.0 4.8 0.00 0.00 0.00 73 1013.0
20260504230749 14 307 0.0 4.8 0.00 0.00 0.00 73 1013.0
20260504230648 14 307 0.0 4.8 0.00 0.00 0.00 73 1013.0
20260504230542 14 307 0.0 4.8 0.00 0.00 0.00 73 1013.0
20260504230448 15 307 1.6 4.8 0.00 0.00 0.00 73 1013.1
20260504230339 14 321 0.0 4.8 0.00 0.00 0.00 73 1013.1
20260504230138 15 321 1.6 4.8 0.00 0.00 0.00 73 1013.1
20260504230037 15 321 1.6 4.8 0.00 0.00 0.00 73 1013.1
20260504225935 15 322 1.6 4.8 0.00 0.00 0.00 73 1013.1
20260504225857 15 301 0.0 4.8 0.00 0.00 0.00 73 1013.1
20260504225824 15 301 0.0 4.8 0.00 0.00 0.00 73 1013.1
20260504225621 15 301 1.6 4.8 0.00 0.00 0.00 73 1013.1
20260504225519 15 301 0.0 4.8 0.00 0.00 0.00 73 1013.1
20260504225425 15 304 0.0 4.8 0.00 0.00 0.00 73 1013.1
20260504225354 15 304 0.0 4.8 0.00 0.00 0.00 73 1013.1
20260504225320 15 304 0.0 4.8 0.00 0.00 0.00 73 1013.1
20260504225113 15 304 0.0 4.8 0.00 0.00 0.00 73 1013.1
20260504225014 15 345 0.0 4.8 0.00 0.00 0.00 73 1013.1
20260504224919 15 345 1.6 4.8 0.00 0.00 0.00 72 1013.1
20260504224846 15 359 0.0 3.2 0.00 0.00 0.00 72 1013.1
20260504224814 15 359 0.0 3.2 0.00 0.00 0.00 72 1013.2
20260504224607 15 359 0.0 3.2 0.00 0.00 0.00 72 1013.2
20260504224506 15 359 0.0 3.2 0.00 0.00 0.00 72 1013.2
20260504224403 15 359 0.0 4.8 0.00 0.00 0.00 71 1013.2
20260504224303 15 359 0.0 4.8 0.00 0.00 0.00 71 1013.2
20260504224203 15 359 0.0 4.8 0.00 0.00 0.00 71 1013.2
20260504224103 15 359 0.0 4.8 0.00 0.00 0.00 71 1013.2
20260504223959 15 323 0.0 4.8 0.00 0.00 0.00 71 1013.2
20260504223857 15 323 0.0 6.4 0.00 0.00 0.00 71 1013.3
20260504223757 15 323 0.0 9.7 0.00 0.00 0.00 71 1013.2
20260504223657 15 323 1.6 11.3 0.00 0.00 0.00 71 1013.2
20260504223557 15 323 1.6 11.3 0.00 0.00 0.00 71 1013.3
20260504223444 15 322 1.6 11.3 0.00 0.00 0.00 70 1013.2
20260504223356 15 320 1.6 11.3 0.00 0.00 0.00 70 1013.2
20260504223324 15 320 1.6 11.3 0.00 0.00 0.00 70 1013.2
20260504223140 15 285 1.6 11.3 0.00 0.00 0.00 70 1013.2
20260504223038 15 285 4.8 11.3 0.00 0.00 0.00 70 1013.2
20260504222938 15 285 6.4 11.3 0.00 0.00 0.00 70 1013.2
20260504222836 15 318 4.8 11.3 0.00 0.00 0.00 70 1013.2
20260504222734 15 316 3.2 9.7 0.00 0.00 0.00 70 1013.2
20260504222638 15 295 1.6 9.7 0.00 0.00 0.00 69 1013.2
20260504222532 15 328 1.6 9.7 0.00 0.00 0.00 69 1013.2
20260504222431 15 342 1.6 9.7 0.00 0.00 0.00 69 1013.2
20260504222352 15 342 1.6 9.7 0.00 0.00 0.00 69 1013.2
20260504222319 15 343 3.2 9.7 0.00 0.00 0.00 69 1013.3
20260504222127 15 296 4.8 9.7 0.00 0.00 0.00 69 1013.2
20260504222025 15 264 3.2 9.7 0.00 0.00 0.00 69 1013.2
20260504221924 15 304 0.0 9.7 0.00 0.00 0.00 69 1013.3
20260504221846 15 318 0.0 4.8 0.00 0.00 0.00 69 1013.2
20260504221817 15 318 0.0 4.8 0.00 0.00 0.00 69 1013.2
20260504221622 15 318 0.0 4.8 0.00 0.00 0.00 69 1013.2
20260504221521 15 318 0.0 4.8 0.00 0.00 0.00 69 1013.2
20260504221419 15 318 0.0 4.8 0.00 0.00 0.00 69 1013.3
20260504221312 15 318 0.0 4.8 0.00 0.00 0.00 69 1013.2
20260504221212 15 318 0.0 6.4 0.00 0.00 0.00 68 1013.3
20260504221108 15 318 0.0 6.4 0.00 0.00 0.00 68 1013.3
20260504221009 15 318 0.0 6.4 0.00 0.00 0.00 68 1013.3
20260504220908 15 318 0.0 6.4 0.00 0.00 0.00 68 1013.3
20260504220801 15 318 0.0 11.3 0.00 0.00 0.00 68 1013.3
20260504220558 15 318 0.0 11.3 0.00 0.00 0.00 68 1013.3
20260504220456 15 318 1.6 11.3 0.00 0.00 0.00 68 1013.3
20260504220349 15 318 1.6 11.3 0.00 0.00 0.00 67 1013.3
20260504220248 15 320 1.6 11.3 0.00 0.00 0.00 67 1013.3
20260504220151 15 330 1.6 11.3 0.00 0.00 0.00 67 1013.3
20260504220045 15 328 1.6 11.3 0.00 0.00 0.00 67 1013.3
20260504215944 15 327 3.2 12.9 0.00 0.00 0.00 66 1013.3
20260504215843 15 327 3.2 12.9 0.00 0.00 0.00 66 1013.3
20260504215741 15 327 3.2 12.9 0.00 0.00 0.00 66 1013.4
20260504215640 15 317 1.6 12.9 0.00 0.00 0.00 66 1013.3
20260504215540 15 288 1.6 12.9 0.00 0.00 0.00 65 1013.4
20260504215437 15 287 0.0 12.9 0.00 0.00 0.00 64 1013.3
20260504215338 15 316 1.6 12.9 0.00 0.00 0.00 64 1013.4
20260504215235 15 316 4.8 12.9 0.00 0.00 0.00 64 1013.3
20260504215133 15 330 4.8 12.9 0.00 0.00 0.00 64 1013.2
20260504215032 15 316 3.2 9.7 0.00 0.00 0.00 63 1013.3
20260504214931 15 303 3.2 9.7 0.00 0.00 0.00 63 1013.3
20260504214830 15 335 1.6 6.4 0.00 0.00 0.00 63 1013.4
20260504214728 15 316 1.6 6.4 0.00 0.00 0.00 62 1013.3
20260504214629 15 330 1.6 6.4 0.00 0.00 0.00 62 1013.4
20260504214527 15 330 1.6 6.4 0.00 0.00 0.00 62 1013.4
20260504214425 15 330 3.2 6.4 0.00 0.00 0.00 62 1013.3
20260504214324 15 330 1.6 6.4 0.00 0.00 0.00 62 1013.4
20260504214218 15 333 0.0 3.2 0.00 0.00 0.00 62 1013.4
20260504214113 15 13 0.0 6.4 0.00 0.00 0.00 61 1013.3
20260504214012 15 13 0.0 6.4 0.00 0.00 0.00 61 1013.3
20260504213911 15 13 0.0 6.4 0.00 0.00 0.00 61 1013.4
20260504213810 15 13 0.0 6.4 0.00 0.00 0.00 61 1013.4
20260504213707 15 13 0.0 6.4 0.00 0.00 0.00 61 1013.3
20260504213606 15 13 0.0 6.4 0.00 0.00 0.00 61 1013.4
20260504213509 16 13 0.0 6.4 0.00 0.00 0.00 61 1013.4
20260504213406 16 13 1.6 6.4 0.00 0.00 0.00 61 1013.3
20260504213304 16 13 0.0 6.4 0.00 0.00 0.00 61 1013.4
20260504213205 15 13 0.0 6.4 0.00 0.00 0.00 61 1013.4
20260504213106 16 322 0.0 3.2 0.00 0.00 0.00 61 1013.4
20260504212958 16 322 0.0 3.2 0.00 0.00 0.00 61 1013.4
20260504212856 16 322 0.0 4.8 0.00 0.00 0.00 61 1013.4
20260504212756 16 322 0.0 4.8 0.00 0.00 0.00 61 1013.4
20260504212655 16 322 0.0 4.8 0.00 0.00 0.00 61 1013.5
20260504212553 16 322 0.0 6.4 0.00 0.00 0.00 61 1013.5
20260504212453 16 322 1.6 9.7 0.00 0.00 0.00 60 1013.4
20260504212347 16 322 1.6 9.7 0.00 0.00 0.00 60 1013.4
20260504212240 16 322 0.0 9.7 0.00 0.00 0.00 60 1013.4
20260504212145 16 322 0.0 9.7 0.00 0.00 0.00 60 1013.5
20260504212102 16 322 0.0 9.7 0.00 0.00 0.00 60 1013.4
20260504212029 16 322 1.6 9.7 0.00 0.00 0.00 60 1013.4
20260504211843 16 320 1.6 9.7 0.00 0.00 0.00 60 1013.4
20260504211811 16 318 3.2 9.7 0.00 0.00 0.00 60 1013.5
20260504211632 16 319 1.6 9.7 0.00 0.00 0.00 60 1013.5
20260504211541 16 321 1.6 4.8 0.00 0.00 0.00 60 1013.4
20260504211440 16 329 0.0 4.8 0.00 0.00 0.00 60 1013.5
20260504211340 16 329 0.0 4.8 0.00 0.00 0.00 60 1013.4
20260504211309 16 329 1.6 4.8 0.00 0.00 0.00 60 1013.4
20260504211129 16 330 1.6 4.8 0.00 0.00 0.00 61 1013.4
20260504211027 16 330 1.6 4.8 0.00 0.00 0.00 60 1013.5
20260504210927 16 330 0.0 1.6 0.00 0.00 0.00 61 1013.4
20260504210826 16 330 0.0 1.6 0.00 0.00 0.00 61 1013.5
20260504210721 16 330 0.0 1.6 0.00 0.00 0.00 61 1013.5
20260504210624 16 330 0.0 3.2 0.00 0.00 0.00 61 1013.5
20260504210527 16 330 0.0 3.2 0.00 0.00 0.00 60 1013.5
20260504210420 16 330 0.0 3.2 0.00 0.00 0.00 60 1013.5
20260504210317 16 330 0.0 3.2 0.00 0.00 0.00 60 1013.5
20260504210217 16 330 0.0 3.2 0.00 0.00 0.00 60 1013.5
20260504210118 16 330 0.0 3.2 0.00 0.00 0.00 60 1013.5
20260504210014 16 330 0.0 4.8 0.00 0.00 0.00 60 1013.5
20260504205910 16 330 0.0 4.8 0.00 0.00 0.00 60 1013.4
20260504205811 16 330 0.0 4.8 0.00 0.00 0.00 60 1013.5
20260504205709 16 330 0.0 4.8 0.00 0.00 0.00 60 1013.5
20260504205607 16 330 0.0 4.8 0.00 0.00 0.00 60 1013.5
20260504205505 16 330 0.0 4.8 0.00 0.00 0.00 60 1013.5
20260504205404 16 330 0.0 4.8 0.00 0.00 0.00 60 1013.5
20260504205317 16 330 0.0 4.8 0.00 0.00 0.00 60 1013.5
20260504205248 16 330 0.0 4.8 0.00 0.00 0.00 60 1013.5
20260504205059 16 330 0.0 4.8 0.00 0.00 0.00 60 1013.5
20260504204958 16 330 0.0 3.2 0.00 0.00 0.00 60 1013.5
20260504204858 16 330 0.0 3.2 0.00 0.00 0.00 60 1013.5
20260504204751 16 328 0.0 3.2 0.00 0.00 0.00 60 1013.5
20260504204544 16 328 0.0 4.8 0.00 0.00 0.00 60 1013.5
20260504204443 16 328 0.0 4.8 0.00 0.00 0.00 60 1013.5
20260504204340 16 328 0.0 4.8 0.00 0.00 0.00 60 1013.5
20260504204238 16 329 0.0 4.8 0.00 0.00 0.00 59 1013.5
20260504204036 16 329 0.0 6.4 0.00 0.00 0.00 59 1013.4
20260504203936 16 329 0.0 9.7 0.00 0.00 0.00 59 1013.5
20260504203834 16 329 0.0 9.7 0.00 0.00 0.00 58 1013.5
20260504203734 16 329 1.6 9.7 0.00 0.00 0.00 58 1013.5
20260504203532 16 320 0.0 9.7 0.00 0.00 0.00 58 1013.5
20260504203431 16 320 0.0 9.7 0.00 0.00 0.00 58 1013.5
20260504203330 16 320 1.6 9.7 0.00 0.00 0.00 57 1013.4
20260504203222 16 320 3.2 9.7 0.00 0.00 0.00 57 1013.4
20260504203118 16 323 3.2 9.7 0.00 0.00 0.00 57 1013.5
20260504203015 16 326 4.8 9.7 0.00 0.00 0.00 57 1013.5
20260504202912 16 326 4.8 9.7 0.00 0.00 0.00 57 1013.4
20260504202827 16 318 3.2 8.0 0.00 0.00 0.00 57 1013.5
20260504202754 16 326 3.2 8.0 0.00 0.00 0.00 57 1013.5
20260504202610 16 312 3.2 8.0 0.00 0.00 0.00 57 1013.5
20260504202506 16 318 3.2 6.4 0.00 0.00 0.00 57 1013.4
20260504202405 16 304 1.6 6.4 0.00 0.00 0.00 57 1013.5
20260504202305 16 297 1.6 6.4 0.00 0.00 0.00 57 1013.5
20260504202204 16 294 1.6 6.4 0.00 0.00 0.00 57 1013.5
20260504202107 16 317 1.6 6.4 0.00 0.00 0.00 57 1013.5
20260504202002 16 317 3.2 6.4 0.00 0.00 0.00 57 1013.5
20260504201902 16 320 4.8 6.4 0.00 0.00 0.00 57 1013.5
20260504201801 16 320 3.2 6.4 0.00 0.00 0.00 57 1013.6
20260504201659 16 298 3.2 6.4 0.00 0.00 0.00 57 1013.5
20260504201557 16 315 3.2 6.4 0.00 0.00 0.00 57 1013.5
20260504201456 16 315 3.2 6.4 0.00 0.00 0.00 57 1013.6
20260504201355 16 314 3.2 6.4 0.00 0.00 0.00 57 1013.6
20260504201253 16 324 1.6 9.7 0.00 0.00 0.00 57 1013.5
20260504201153 16 324 3.2 9.7 0.00 0.00 0.00 57 1013.6
20260504201042 16 327 3.2 9.7 0.00 0.00 0.00 57 1013.6
20260504200943 16 327 3.2 9.7 0.00 0.00 0.00 57 1013.5
20260504200841 16 326 3.2 9.7 0.00 0.00 0.00 57 1013.5
20260504200741 16 316 1.6 9.7 0.00 0.00 0.00 58 1013.5
20260504200635 16 282 1.6 9.7 0.00 0.00 0.00 58 1013.5
20260504200533 16 316 3.2 9.7 0.00 0.00 0.00 58 1013.5
20260504200436 16 316 3.2 9.7 0.00 0.00 0.00 58 1013.6
20260504200336 16 318 1.6 14.5 0.00 0.00 0.00 58 1013.5
20260504200231 16 310 3.2 14.5 0.00 0.00 0.00 58 1013.5
20260504200136 16 319 4.8 14.5 0.00 0.00 0.00 58 1013.5
20260504200028 16 316 4.8 14.5 0.00 0.00 0.00 58 1013.5
20260504195927 16 323 4.8 14.5 0.00 0.00 0.00 58 1013.5
20260504195824 16 320 3.2 14.5 0.00 0.00 0.00 58 1013.6
20260504195717 16 307 3.2 14.5 0.00 0.00 0.00 58 1013.6
20260504195615 16 308 6.4 14.5 0.00 0.00 0.00 58 1013.5
20260504195516 16 326 6.4 14.5 0.00 0.00 0.00 59 1013.6
20260504195415 16 323 4.8 11.3 0.00 0.00 0.00 59 1013.6
20260504195313 16 322 4.8 11.3 0.00 0.00 0.00 59 1013.5
20260504195210 16 328 6.4 11.3 0.00 0.00 0.00 59 1013.6
20260504195110 16 326 8.0 11.3 0.00 0.00 0.00 59 1013.6
20260504195008 16 324 9.7 11.3 0.00 0.00 0.00 58 1013.6
20260504194908 16 320 9.7 11.3 0.00 0.00 0.00 58 1013.6
20260504194805 16 324 8.0 11.3 0.00 0.00 0.00 58 1013.6
20260504194705 16 324 8.0 11.3 0.00 0.00 0.00 58 1013.6
20260504194603 16 322 6.4 11.3 0.00 0.00 0.00 58 1013.6
20260504194502 16 326 4.8 9.7 0.00 0.00 0.00 58 1013.5
20260504194401 17 320 4.8 9.7 0.00 0.00 0.00 58 1013.5
20260504194259 17 322 4.8 9.7 0.00 0.00 0.00 58 1013.5
20260504194158 17 328 4.8 9.7 0.00 0.00 0.00 58 1013.6
20260504194058 17 328 3.2 9.7 0.00 0.00 0.00 58 1013.6
20260504193954 17 326 3.2 9.7 0.00 0.00 0.00 58 1013.5
20260504193854 17 329 3.2 9.7 0.00 0.00 0.00 58 1013.6
20260504193754 17 328 4.8 9.7 0.00 0.00 0.00 58 1013.6
20260504193654 17 330 3.2 9.7 0.00 0.00 0.00 58 1013.6
20260504193555 17 326 4.8 9.7 0.00 0.00 0.00 58 1013.6
20260504193443 17 325 4.8 9.7 0.00 0.00 0.00 57 1013.6
20260504193342 17 327 4.8 9.7 0.00 0.00 0.00 57 1013.6
20260504193242 17 328 3.2 9.7 0.00 0.00 0.00 57 1013.6
20260504193140 17 322 4.8 9.7 0.00 0.00 0.00 57 1013.6
20260504193039 17 326 4.8 9.7 0.00 0.00 0.00 57 1013.6
20260504192937 17 326 4.8 9.7 0.00 0.00 0.00 56 1013.6
20260504192836 17 327 4.8 9.7 0.00 0.00 0.00 56 1013.6
20260504192735 17 330 6.4 9.7 0.00 0.00 0.00 56 1013.6
20260504192633 17 328 4.8 9.7 0.00 0.00 0.00 56 1013.6
20260504192533 17 324 4.8 9.7 0.00 0.00 0.00 56 1013.6
20260504192431 17 326 4.8 9.7 0.00 0.00 0.00 55 1013.6
20260504192330 17 324 3.2 8.0 0.00 0.00 0.00 55 1013.6
20260504192230 17 291 3.2 8.0 0.00 0.00 0.00 55 1013.5
20260504192136 17 284 4.8 8.0 0.00 0.00 0.00 55 1013.7
20260504192028 17 298 3.2 8.0 0.00 0.00 0.00 55 1013.6
20260504191927 17 281 1.6 8.0 0.00 0.00 0.00 55 1013.6
20260504191827 17 298 1.6 8.0 0.00 0.00 0.00 55 1013.6
20260504191753 17 290 1.6 8.0 0.00 0.00 0.00 55 1013.6
20260504191721 17 281 1.6 8.0 0.00 0.00 0.00 55 1013.6
20260504191521 17 280 1.6 8.0 0.00 0.00 0.00 55 1013.6
20260504191419 17 280 1.6 8.0 0.00 0.00 0.00 54 1013.6
20260504191319 17 278 3.2 8.0 0.00 0.00 0.00 54 1013.6
20260504191215 17 271 3.2 8.0 0.00 0.00 0.00 54 1013.6
20260504191013 17 281 1.6 8.0 0.00 0.00 0.00 54 1013.6
20260504190913 17 288 3.2 8.0 0.00 0.00 0.00 54 1013.6
20260504190811 17 288 3.2 8.0 0.00 0.00 0.00 54 1013.5
20260504190710 17 266 3.2 8.0 0.00 0.00 0.00 54 1013.6
20260504190611 17 306 3.2 8.0 0.00 0.00 0.00 54 1013.6
20260504190507 17 306 3.2 11.3 0.00 0.00 0.00 54 1013.6
20260504190407 17 280 4.8 11.3 0.00 0.00 0.00 54 1013.6
20260504190305 17 285 4.8 11.3 0.00 0.00 0.00 54 1013.6
20260504190203 17 283 3.2 11.3 0.00 0.00 0.00 54 1013.5
20260504190004 17 289 4.8 11.3 0.00 0.00 0.00 54 1013.5
20260504185854 17 289 4.8 11.3 0.00 0.00 0.00 53 1013.5
20260504185757 17 283 4.8 11.3 0.00 0.00 0.00 53 1013.4
20260504185652 17 289 3.2 11.3 0.00 0.00 0.00 53 1013.5
20260504185550 17 309 3.2 11.3 0.00 0.00 0.00 53 1013.4
20260504185449 17 325 3.2 6.4 0.00 0.00 0.00 54 1013.5
20260504185349 17 326 3.2 6.4 0.00 0.00 0.00 54 1013.4
20260504185248 17 326 4.8 6.4 0.00 0.00 0.00 53 1013.4
20260504185147 17 326 4.8 6.4 0.00 0.00 0.00 53 1013.4
20260504185046 17 327 3.2 6.4 0.00 0.00 0.00 53 1013.4
20260504184945 17 327 3.2 6.4 0.00 0.00 0.00 53 1013.4
20260504184843 17 326 3.2 6.4 0.00 0.00 0.00 53 1013.4
20260504184742 17 326 1.6 6.4 0.00 0.00 0.00 53 1013.5
20260504184641 18 326 1.6 6.4 0.00 0.00 0.00 53 1013.5
20260504184539 18 326 1.6 6.4 0.00 0.00 0.00 53 1013.5
20260504184438 18 326 1.6 6.4 0.00 0.00 0.00 53 1013.5
20260504184336 18 328 3.2 6.4 0.00 0.00 0.00 53 1013.5
20260504184251 18 328 3.2 6.4 0.00 0.00 0.00 53 1013.5
20260504184219 18 327 3.2 6.4 0.00 0.00 0.00 53 1013.4
20260504184036 18 326 3.2 6.4 0.00 0.00 0.00 53 1013.4
20260504183932 18 325 3.2 6.4 0.00 0.00 0.00 53 1013.4
20260504183831 18 324 3.2 6.4 0.00 0.00 0.00 53 1013.5
20260504183729 18 324 1.6 6.4 0.00 0.00 0.00 53 1013.5
20260504183629 18 324 3.2 6.4 0.00 0.00 0.00 53 1013.4
20260504183525 18 324 3.2 6.4 0.00 0.00 0.00 53 1013.4
20260504183426 18 324 3.2 6.4 0.00 0.00 0.00 53 1013.4
20260504183324 18 322 1.6 6.4 0.00 0.00 0.00 53 1013.5
20260504183223 18 305 1.6 6.4 0.00 0.00 0.00 53 1013.5
20260504183122 18 304 1.6 6.4 0.00 0.00 0.00 53 1013.5
20260504183020 18 304 1.6 6.4 0.00 0.00 0.00 53 1013.5
20260504182914 18 304 3.2 6.4 0.00 0.00 0.00 53 1013.5
20260504182813 18 301 3.2 6.4 0.00 0.00 0.00 53 1013.5
20260504182712 18 277 4.8 6.4 0.00 0.00 0.00 53 1013.6
20260504182609 18 295 4.8 6.4 0.00 0.00 0.00 53 1013.5
20260504182507 18 297 4.8 8.0 0.00 0.00 0.00 53 1013.5
20260504182406 18 295 3.2 8.0 0.00 0.00 0.00 53 1013.6
20260504182306 18 288 4.8 8.0 0.00 0.00 0.00 53 1013.6
20260504182205 18 289 3.2 8.0 0.00 0.00 0.00 53 1013.6
20260504182106 18 290 3.2 8.0 0.00 0.00 0.00 53 1013.6
20260504182003 18 293 3.2 8.0 0.00 0.00 0.00 53 1013.6
20260504181859 18 293 1.6 8.0 0.00 0.00 0.00 53 1013.6
20260504181758 18 282 3.2 8.0 0.00 0.00 0.00 53 1013.6
20260504181658 18 277 4.8 8.0 0.00 0.00 0.00 53 1013.5
20260504181557 18 277 3.2 8.0 0.00 0.00 0.00 53 1013.6
20260504181455 18 280 4.8 11.3 0.00 0.00 0.00 53 1013.6
20260504181355 18 278 4.8 11.3 0.00 0.00 0.00 53 1013.6
20260504181252 18 278 4.8 11.3 0.00 0.00 0.00 53 1013.6
20260504181151 18 289 4.8 11.3 0.00 0.00 0.00 53 1013.6
20260504180950 18 285 4.8 11.3 0.00 0.00 0.00 53 1013.6
20260504180849 18 280 4.8 11.3 0.00 0.00 0.00 52 1013.6
20260504180747 18 291 6.4 11.3 0.00 0.00 0.00 52 1013.6
20260504180644 18 288 6.4 11.3 0.00 0.00 0.00 52 1013.6
20260504180443 18 299 6.4 8.0 0.00 0.00 0.00 52 1013.6
20260504180338 18 282 6.4 8.0 0.00 0.00 0.00 52 1013.5
20260504180240 18 278 3.2 8.0 0.00 0.00 0.00 52 1013.5
20260504180146 18 280 3.2 9.7 0.00 0.00 0.00 52 1013.4
20260504180037 18 293 3.2 9.7 0.00 0.00 0.00 52 1013.4
20260504175938 18 293 3.2 9.7 0.00 0.00 0.00 52 1013.5
20260504175836 18 312 3.2 11.3 0.00 0.00 0.00 51 1013.5
20260504175735 18 287 3.2 11.3 0.00 0.00 0.00 51 1013.4
20260504175703 18 308 3.2 11.3 0.00 0.00 0.00 52 1013.4
20260504175526 18 318 3.2 11.3 0.00 0.00 0.00 51 1013.4
20260504175420 18 316 3.2 11.3 0.00 0.00 0.00 52 1013.4
20260504175319 18 321 3.2 11.3 0.00 0.00 0.00 52 1013.4
20260504175218 18 321 3.2 11.3 0.00 0.00 0.00 52 1013.3
20260504175117 18 320 4.8 11.3 0.00 0.00 0.00 52 1013.3
20260504175014 18 324 6.4 11.3 0.00 0.00 0.00 52 1013.3
20260504174913 18 324 6.4 12.9 0.00 0.00 0.00 52 1013.3
20260504174812 18 324 4.8 12.9 0.00 0.00 0.00 52 1013.3
20260504174710 18 325 4.8 12.9 0.00 0.00 0.00 52 1013.3
20260504174609 18 330 3.2 12.9 0.00 0.00 0.00 52 1013.2
20260504174507 18 329 4.8 12.9 0.00 0.00 0.00 51 1013.2
20260504174406 18 328 4.8 12.9 0.00 0.00 0.00 51 1013.3